Wetterdaten: Donnerstag, 20.03.2014
Datum Zeit Temp. Aussen +5cm Feuchte Auss Luftdruck Regen Sonnenschein Regendauer UV Solar Windben
20.03.2014 00:00 11,1 C 9,4 C 78 % 1021,6 hPa 0,0 l/m 0 min 0 min 0,0 UV-I 0 W/m 18,0 km/h (3 Bft)
20.03.2014 00:02 11,0 C 9,4 C 78 % 1021,6 hPa 0,0 l/m 0 min 0 min 0,0 UV-I 0 W/m 7,7 km/h (2 Bft)
20.03.2014 00:06 10,9 C 9,4 C 78 % 1021,5 hPa 0,0 l/m 0 min 0 min 0,0 UV-I 0 W/m 12,9 km/h (3 Bft)
20.03.2014 00:08 10,9 C 8,9 C 78 % 1021,5 hPa 0,0 l/m 0 min 0 min 0,0 UV-I 0 W/m 15,4 km/h (3 Bft)
20.03.2014 00:10 10,9 C 8,9 C 79 % 1021,6 hPa 0,0 l/m 0 min 0 min 0,0 UV-I 0 W/m 7,7 km/h (2 Bft)
20.03.2014 00:12 10,9 C 8,9 C 79 % 1021,5 hPa 0,0 l/m 0 min 0 min 0,0 UV-I 0 W/m 12,9 km/h (3 Bft)
20.03.2014 00:14 10,8 C 8,9 C 79 % 1021,5 hPa 0,0 l/m 0 min 0 min 0,0 UV-I 0 W/m 15,4 km/h (3 Bft)
20.03.2014 00:16 10,8 C 8,9 C 79 % 1021,6 hPa 0,0 l/m 0 min 0 min 0,0 UV-I 0 W/m 12,9 km/h (3 Bft)
20.03.2014 00:18 10,8 C 8,9 C 79 % 1021,5 hPa 0,0 l/m 0 min 0 min 0,0 UV-I 0 W/m 12,9 km/h (3 Bft)
20.03.2014 00:20 10,8 C 8,9 C 79 % 1021,5 hPa 0,0 l/m 0 min 0 min 0,0 UV-I 0 W/m 7,7 km/h (2 Bft)
20.03.2014 00:22 10,8 C 8,9 C 79 % 1021,4 hPa 0,0 l/m 0 min 0 min 0,0 UV-I 0 W/m 10,3 km/h (2 Bft)
20.03.2014 00:24 10,8 C 8,9 C 79 % 1021,4 hPa 0,0 l/m 0 min 0 min 0,0 UV-I 0 W/m 18,0 km/h (3 Bft)
20.03.2014 00:26 10,8 C 8,9 C 79 % 1021,4 hPa 0,0 l/m 0 min 0 min 0,0 UV-I 0 W/m 7,7 km/h (2 Bft)
20.03.2014 00:28 10,7 C 8,9 C 79 % 1021,3 hPa 0,0 l/m 0 min 0 min 0,0 UV-I 0 W/m 5,1 km/h (1 Bft)
20.03.2014 00:30 10,7 C 8,9 C 79 % 1021,3 hPa 0,0 l/m 0 min 0 min 0,0 UV-I 0 W/m 2,6 km/h (1 Bft)
20.03.2014 00:32 10,7 C 8,9 C 79 % 1021,3 hPa 0,0 l/m 0 min 0 min 0,0 UV-I 0 W/m 5,1 km/h (1 Bft)
20.03.2014 00:34 10,7 C 8,9 C 79 % 1021,3 hPa 0,0 l/m 0 min 0 min 0,0 UV-I 0 W/m 0,0 km/h (0 Bft)
20.03.2014 00:36 10,7 C 8,9 C 79 % 1021,4 hPa 0,0 l/m 0 min 0 min 0,0 UV-I 0 W/m 18,0 km/h (3 Bft)
20.03.2014 00:38 10,7 C 8,9 C 79 % 1021,3 hPa 0,0 l/m 0 min 0 min 0,0 UV-I 0 W/m 10,3 km/h (2 Bft)
20.03.2014 00:40 10,6 C 8,9 C 79 % 1021,2 hPa 0,0 l/m 0 min 0 min 0,0 UV-I 0 W/m 5,1 km/h (1 Bft)
20.03.2014 00:42 10,6 C 8,9 C 79 % 1021,3 hPa 0,0 l/m 0 min 0 min 0,0 UV-I 0 W/m 15,4 km/h (3 Bft)
20.03.2014 00:44 10,6 C 8,9 C 79 % 1021,3 hPa 0,0 l/m 0 min 0 min 0,0 UV-I 0 W/m 15,4 km/h (3 Bft)
20.03.2014 00:46 10,6 C 8,9 C 79 % 1021,4 hPa 0,0 l/m 0 min 0 min 0,0 UV-I 0 W/m 7,7 km/h (2 Bft)
20.03.2014 00:48 10,6 C 8,9 C 79 % 1021,3 hPa 0,0 l/m 0 min 0 min 0,0 UV-I 0 W/m 12,9 km/h (3 Bft)
20.03.2014 00:50 10,7 C 8,9 C 79 % 1021,3 hPa 0,0 l/m 0 min 0 min 0,0 UV-I 0 W/m 18,0 km/h (3 Bft)
20.03.2014 00:52 10,7 C 8,9 C 79 % 1021,2 hPa 0,0 l/m 0 min 0 min 0,0 UV-I 0 W/m 18,0 km/h (3 Bft)
20.03.2014 00:54 10,7 C 8,9 C 79 % 1021,2 hPa 0,0 l/m 0 min 0 min 0,0 UV-I 0 W/m 12,9 km/h (3 Bft)
20.03.2014 00:56 10,7 C 8,9 C 79 % 1021,3 hPa 0,0 l/m 0 min 0 min 0,0 UV-I 0 W/m 10,3 km/h (2 Bft)
20.03.2014 00:58 10,7 C 8,9 C 79 % 1021,3 hPa 0,0 l/m 0 min 0 min 0,0 UV-I 0 W/m 10,3 km/h (2 Bft)
20.03.2014 01:00 10,7 C 8,9 C 79 % 1021,3 hPa 0,0 l/m 0 min 0 min 0,0 UV-I 0 W/m 15,4 km/h (3 Bft)
20.03.2014 01:03 10,6 C 8,9 C 79 % 1021,3 hPa 0,0 l/m 0 min 0 min 0,0 UV-I 0 W/m 7,7 km/h (2 Bft)
20.03.2014 01:04 10,6 C 8,9 C 79 % 1021,3 hPa 0,0 l/m 0 min 0 min 0,0 UV-I 0 W/m 2,6 km/h (1 Bft)
20.03.2014 01:06 10,6 C 8,9 C 79 % 1021,3 hPa 0,0 l/m 0 min 0 min 0,0 UV-I 0 W/m 10,3 km/h (2 Bft)
20.03.2014 01:08 10,6 C 8,9 C 79 % 1021,3 hPa 0,0 l/m 0 min 0 min 0,0 UV-I 0 W/m 7,7 km/h (2 Bft)
20.03.2014 01:10 10,5 C 8,9 C 79 % 1021,2 hPa 0,0 l/m 0 min 0 min 0,0 UV-I 0 W/m 5,1 km/h (1 Bft)
20.03.2014 01:12 10,5 C 8,9 C 79 % 1021,2 hPa 0,0 l/m 0 min 0 min 0,0 UV-I 0 W/m 7,7 km/h (2 Bft)
20.03.2014 01:14 10,5 C 8,9 C 79 % 1021,3 hPa 0,0 l/m 0 min 0 min 0,0 UV-I 0 W/m 7,7 km/h (2 Bft)
20.03.2014 01:16 10,5 C 8,9 C 79 % 1021,2 hPa 0,0 l/m 0 min 0 min 0,0 UV-I 0 W/m 10,3 km/h (2 Bft)
20.03.2014 01:18 10,5 C 8,9 C 79 % 1021,2 hPa 0,0 l/m 0 min 0 min 0,0 UV-I 0 W/m 18,0 km/h (3 Bft)
20.03.2014 01:20 10,5 C 8,9 C 79 % 1021,2 hPa 0,0 l/m 0 min 0 min 0,0 UV-I 0 W/m 7,7 km/h (2 Bft)
20.03.2014 01:22 10,4 C 8,9 C 79 % 1021,2 hPa 0,0 l/m 0 min 0 min 0,0 UV-I 0 W/m 12,9 km/h (3 Bft)
20.03.2014 01:24 10,4 C 8,9 C 79 % 1021,3 hPa 0,0 l/m 0 min 0 min 0,0 UV-I 0 W/m 10,3 km/h (2 Bft)
20.03.2014 01:26 10,4 C 8,9 C 79 % 1021,2 hPa 0,0 l/m 0 min 0 min 0,0 UV-I 0 W/m 5,1 km/h (1 Bft)
20.03.2014 01:28 10,4 C 8,9 C 79 % 1021,2 hPa 0,0 l/m 0 min 0 min 0,0 UV-I 0 W/m 12,9 km/h (3 Bft)
20.03.2014 01:30 10,4 C 8,9 C 79 % 1021,2 hPa 0,0 l/m 0 min 0 min 0,0 UV-I 0 W/m 5,1 km/h (1 Bft)
20.03.2014 01:32 10,4 C 8,9 C 79 % 1021,2 hPa 0,0 l/m 0 min 0 min 0,0 UV-I 0 W/m 7,7 km/h (2 Bft)
20.03.2014 01:34 10,4 C 8,9 C 79 % 1021,2 hPa 0,0 l/m 0 min 0 min 0,0 UV-I 0 W/m 5,1 km/h (1 Bft)
20.03.2014 01:36 10,4 C 8,9 C 79 % 1021,3 hPa 0,0 l/m 0 min 0 min 0,0 UV-I 0 W/m 12,9 km/h (3 Bft)
20.03.2014 01:38 10,4 C 8,9 C 79 % 1021,2 hPa 0,0 l/m 0 min 0 min 0,0 UV-I 0 W/m 10,3 km/h (2 Bft)
20.03.2014 01:40 10,4 C 8,9 C 79 % 1021,2 hPa 0,0 l/m 0 min 0 min 0,0 UV-I 0 W/m 18,0 km/h (3 Bft)
20.03.2014 01:42 10,4 C 8,9 C 79 % 1021,1 hPa 0,0 l/m 0 min 0 min 0,0 UV-I 0 W/m 10,3 km/h (2 Bft)
20.03.2014 01:44 10,4 C 8,9 C 79 % 1021,1 hPa 0,0 l/m 0 min 0 min 0,0 UV-I 0 W/m 10,3 km/h (2 Bft)
20.03.2014 01:46 10,5 C 8,9 C 79 % 1021,1 hPa 0,0 l/m 0 min 0 min 0,0 UV-I 0 W/m 18,0 km/h (3 Bft)
20.03.2014 01:48 10,5 C 8,9 C 78 % 1021,1 hPa 0,0 l/m 0 min 0 min 0,0 UV-I 0 W/m 10,3 km/h (2 Bft)
20.03.2014 01:50 10,5 C 8,9 C 78 % 1021,1 hPa 0,0 l/m 0 min 0 min 0,0 UV-I 0 W/m 7,7 km/h (2 Bft)
20.03.2014 01:52 10,4 C 8,9 C 78 % 1021,1 hPa 0,0 l/m 0 min 0 min 0,0 UV-I 0 W/m 2,6 km/h (1 Bft)
20.03.2014 01:54 10,4 C 8,9 C 78 % 1021,0 hPa 0,0 l/m 0 min 0 min 0,0 UV-I 0 W/m 18,0 km/h (3 Bft)
20.03.2014 01:56 10,4 C 8,9 C 78 % 1021,0 hPa 0,0 l/m 0 min 0 min 0,0 UV-I 0 W/m 10,3 km/h (2 Bft)
20.03.2014 01:58 10,4 C 8,9 C 78 % 1021,0 hPa 0,0 l/m 0 min 0 min 0,0 UV-I 0 W/m 18,0 km/h (3 Bft)
20.03.2014 02:00 10,4 C 8,9 C 78 % 1021,0 hPa 0,0 l/m 0 min 0 min 0,0 UV-I 0 W/m 5,1 km/h (1 Bft)
20.03.2014 02:02 10,4 C 8,9 C 78 % 1021,0 hPa 0,0 l/m 0 min 0 min 0,0 UV-I 0 W/m 10,3 km/h (2 Bft)
20.03.2014 02:06 10,3 C 8,9 C 78 % 1020,9 hPa 0,0 l/m 0 min 0 min 0,0 UV-I 0 W/m 12,9 km/h (3 Bft)
20.03.2014 02:08 10,3 C 8,3 C 78 % 1020,9 hPa 0,0 l/m 0 min 0 min 0,0 UV-I 0 W/m 10,3 km/h (2 Bft)
20.03.2014 02:10 10,3 C 8,3 C 78 % 1020,9 hPa 0,0 l/m 0 min 0 min 0,0 UV-I 0 W/m 5,1 km/h (1 Bft)
20.03.2014 02:12 10,3 C 8,3 C 78 % 1020,9 hPa 0,0 l/m 0 min 0 min 0,0 UV-I 0 W/m 7,7 km/h (2 Bft)
20.03.2014 02:14 10,2 C 8,3 C 78 % 1020,9 hPa 0,0 l/m 0 min 0 min 0,0 UV-I 0 W/m 12,9 km/h (3 Bft)
20.03.2014 02:16 10,2 C 8,3 C 78 % 1020,9 hPa 0,0 l/m 0 min 0 min 0,0 UV-I 0 W/m 7,7 km/h (2 Bft)
20.03.2014 02:18 10,2 C 8,3 C 79 % 1020,9 hPa 0,0 l/m 0 min 0 min 0,0 UV-I 0 W/m 7,7 km/h (2 Bft)
20.03.2014 02:20 10,1 C 8,3 C 79 % 1020,9 hPa 0,0 l/m 0 min 0 min 0,0 UV-I 0 W/m 2,6 km/h (1 Bft)
20.03.2014 02:22 10,1 C 8,3 C 79 % 1020,9 hPa 0,0 l/m 0 min 0 min 0,0 UV-I 0 W/m 2,6 km/h (1 Bft)
20.03.2014 02:24 10,1 C 8,3 C 79 % 1020,8 hPa 0,0 l/m 0 min 0 min 0,0 UV-I 0 W/m 12,9 km/h (3 Bft)
20.03.2014 02:26 10,1 C 8,3 C 79 % 1020,8 hPa 0,0 l/m 0 min 0 min 0,0 UV-I 0 W/m 7,7 km/h (2 Bft)
20.03.2014 02:28 10,1 C 8,3 C 79 % 1020,9 hPa 0,0 l/m 0 min 0 min 0,0 UV-I 0 W/m 2,6 km/h (1 Bft)
20.03.2014 02:30 10,0 C 8,3 C 79 % 1020,7 hPa 0,0 l/m 0 min 0 min 0,0 UV-I 0 W/m 0,0 km/h (0 Bft)
20.03.2014 02:32 9,9 C 7,8 C 79 % 1020,7 hPa 0,0 l/m 0 min 0 min 0,0 UV-I 0 W/m 7,7 km/h (2 Bft)
20.03.2014 02:34 9,9 C 7,8 C 79 % 1020,8 hPa 0,0 l/m 0 min 0 min 0,0 UV-I 0 W/m 10,3 km/h (2 Bft)
20.03.2014 02:36 9,9 C 7,8 C 79 % 1020,7 hPa 0,0 l/m 0 min 0 min 0,0 UV-I 0 W/m 5,1 km/h (1 Bft)
20.03.2014 02:38 9,9 C 8,3 C 79 % 1020,6 hPa 0,0 l/m 0 min 0 min 0,0 UV-I 0 W/m 0,0 km/h (0 Bft)
20.03.2014 02:40 9,9 C 7,8 C 79 % 1020,6 hPa 0,0 l/m 0 min 0 min 0,0 UV-I 0 W/m 2,6 km/h (1 Bft)
20.03.2014 02:42 9,9 C 7,8 C 79 % 1020,5 hPa 0,0 l/m 0 min 0 min 0,0 UV-I 0 W/m 10,3 km/h (2 Bft)
20.03.2014 02:44 9,8 C 7,8 C 79 % 1020,5 hPa 0,0 l/m 0 min 0 min 0,0 UV-I 0 W/m 0,0 km/h (0 Bft)
20.03.2014 02:46 9,8 C 7,8 C 79 % 1020,5 hPa 0,0 l/m 0 min 0 min 0,0 UV-I 0 W/m 7,7 km/h (2 Bft)
20.03.2014 02:48 9,7 C 7,8 C 79 % 1020,5 hPa 0,0 l/m 0 min 0 min 0,0 UV-I 0 W/m 0,0 km/h (0 Bft)
20.03.2014 02:50 9,7 C 7,8 C 80 % 1020,4 hPa 0,0 l/m 0 min 0 min 0,0 UV-I 0 W/m 2,6 km/h (1 Bft)
20.03.2014 02:52 9,7 C 7,8 C 80 % 1020,4 hPa 0,0 l/m 0 min 0 min 0,0 UV-I 0 W/m 7,7 km/h (2 Bft)
20.03.2014 02:54 9,7 C 7,8 C 80 % 1020,3 hPa 0,0 l/m 0 min 0 min 0,0 UV-I 0 W/m 5,1 km/h (1 Bft)
20.03.2014 02:56 9,7 C 7,8 C 80 % 1020,3 hPa 0,0 l/m 0 min 0 min 0,0 UV-I 0 W/m 0,0 km/h (0 Bft)
20.03.2014 02:58 9,7 C 7,8 C 80 % 1020,3 hPa 0,0 l/m 0 min 0 min 0,0 UV-I 0 W/m 5,1 km/h (1 Bft)
20.03.2014 03:00 9,6 C 7,8 C 80 % 1020,3 hPa 0,0 l/m 0 min 0 min 0,0 UV-I 0 W/m 7,7 km/h (2 Bft)
20.03.2014 03:02 9,6 C 7,8 C 80 % 1020,2 hPa 0,0 l/m 0 min 0 min 0,0 UV-I 0 W/m 10,3 km/h (2 Bft)
20.03.2014 03:06 9,6 C 7,8 C 80 % 1020,2 hPa 0,0 l/m 0 min 0 min 0,0 UV-I 0 W/m 7,7 km/h (2 Bft)
20.03.2014 03:08 9,6 C 7,8 C 80 % 1020,2 hPa 0,0 l/m 0 min 0 min 0,0 UV-I 0 W/m 0,0 km/h (0 Bft)
20.03.2014 03:10 9,6 C 7,8 C 80 % 1020,1 hPa 0,0 l/m 0 min 0 min 0,0 UV-I 0 W/m 10,3 km/h (2 Bft)
20.03.2014 03:12 9,6 C 7,8 C 80 % 1020,1 hPa 0,0 l/m 0 min 0 min 0,0 UV-I 0 W/m 5,1 km/h (1 Bft)
20.03.2014 03:14 9,5 C 7,8 C 80 % 1020,1 hPa 0,0 l/m 0 min 0 min 0,0 UV-I 0 W/m 5,1 km/h (1 Bft)
20.03.2014 03:16 9,4 C 7,8 C 80 % 1020,1 hPa 0,0 l/m 0 min 0 min 0,0 UV-I 0 W/m 2,6 km/h (1 Bft)
20.03.2014 03:18 9,4 C 7,2 C 80 % 1020,0 hPa 0,0 l/m 0 min 0 min 0,0 UV-I 0 W/m 0,0 km/h (0 Bft)
20.03.2014 03:20 9,4 C 7,2 C 80 % 1020,0 hPa 0,0 l/m 0 min 0 min 0,0 UV-I 0 W/m 2,6 km/h (1 Bft)
20.03.2014 03:22 9,3 C 7,2 C 80 % 1020,0 hPa 0,0 l/m 0 min 0 min 0,0 UV-I 0 W/m 0,0 km/h (0 Bft)
20.03.2014 03:24 9,2 C 7,2 C 81 % 1020,0 hPa 0,0 l/m 0 min 0 min 0,0 UV-I 0 W/m 0,0 km/h (0 Bft)
20.03.2014 03:26 9,1 C 7,2 C 81 % 1020,0 hPa 0,0 l/m 0 min 0 min 0,0 UV-I 0 W/m 10,3 km/h (2 Bft)
20.03.2014 03:28 9,1 C 7,2 C 81 % 1020,0 hPa 0,0 l/m 0 min 0 min 0,0 UV-I 0 W/m 0,0 km/h (0 Bft)
20.03.2014 03:30 9,1 C 7,2 C 81 % 1020,0 hPa 0,0 l/m 0 min 0 min 0,0 UV-I 0 W/m 5,1 km/h (1 Bft)
20.03.2014 03:32 8,9 C 6,7 C 82 % 1020,0 hPa 0,0 l/m 0 min 0 min 0,0 UV-I 0 W/m 0,0 km/h (0 Bft)
20.03.2014 03:34 8,8 C 6,7 C 82 % 1019,9 hPa 0,0 l/m 0 min 0 min 0,0 UV-I 0 W/m 0,0 km/h (0 Bft)
20.03.2014 03:36 8,8 C 6,7 C 82 % 1019,9 hPa 0,0 l/m 0 min 0 min 0,0 UV-I 0 W/m 0,0 km/h (0 Bft)
20.03.2014 03:38 8,7 C 6,7 C 82 % 1019,9 hPa 0,0 l/m 0 min 0 min 0,0 UV-I 0 W/m 0,0 km/h (0 Bft)
20.03.2014 03:40 8,7 C 6,7 C 82 % 1019,8 hPa 0,0 l/m 0 min 0 min 0,0 UV-I 0 W/m 0,0 km/h (0 Bft)
20.03.2014 03:42 8,7 C 6,7 C 82 % 1019,8 hPa 0,0 l/m 0 min 0 min 0,0 UV-I 0 W/m 0,0 km/h (0 Bft)
20.03.2014 03:44 8,7 C 6,7 C 82 % 1019,7 hPa 0,0 l/m 0 min 0 min 0,0 UV-I 0 W/m 0,0 km/h (0 Bft)
20.03.2014 03:46 8,7 C 6,7 C 83 % 1019,7 hPa 0,0 l/m 0 min 0 min 0,0 UV-I 0 W/m 0,0 km/h (0 Bft)
20.03.2014 03:48 8,7 C 6,1 C 82 % 1019,7 hPa 0,0 l/m 0 min 0 min 0,0 UV-I 0 W/m 0,0 km/h (0 Bft)
20.03.2014 03:50 8,7 C 6,1 C 82 % 1019,6 hPa 0,0 l/m 0 min 0 min 0,0 UV-I 0 W/m 0,0 km/h (0 Bft)
20.03.2014 03:52 8,7 C 6,1 C 82 % 1019,6 hPa 0,0 l/m 0 min 0 min 0,0 UV-I 0 W/m 0,0 km/h (0 Bft)
20.03.2014 03:54 8,6 C 6,1 C 82 % 1019,6 hPa 0,0 l/m 0 min 0 min 0,0 UV-I 0 W/m 0,0 km/h (0 Bft)
20.03.2014 03:56 8,6 C 6,1 C 82 % 1019,5 hPa 0,0 l/m 0 min 0 min 0,0 UV-I 0 W/m 0,0 km/h (0 Bft)
20.03.2014 03:58 8,6 C 6,1 C 82 % 1019,5 hPa 0,0 l/m 0 min 0 min 0,0 UV-I 0 W/m 0,0 km/h (0 Bft)
20.03.2014 04:00 8,6 C 6,1 C 82 % 1019,5 hPa 0,0 l/m 0 min 0 min 0,0 UV-I 0 W/m 0,0 km/h (0 Bft)
20.03.2014 04:02 8,5 C 6,1 C 82 % 1019,5 hPa 0,0 l/m 0 min 0 min 0,0 UV-I 0 W/m 0,0 km/h (0 Bft)
20.03.2014 04:06 8,4 C 6,1 C 83 % 1019,5 hPa 0,0 l/m 0 min 0 min 0,0 UV-I 0 W/m 0,0 km/h (0 Bft)
20.03.2014 04:08 8,3 C 6,1 C 83 % 1019,5 hPa 0,0 l/m 0 min 0 min 0,0 UV-I 0 W/m 0,0 km/h (0 Bft)
20.03.2014 04:10 8,2 C 5,6 C 83 % 1019,5 hPa 0,0 l/m 0 min 0 min 0,0 UV-I 0 W/m 0,0 km/h (0 Bft)
20.03.2014 04:12 8,2 C 5,6 C 83 % 1019,5 hPa 0,0 l/m 0 min 0 min 0,0 UV-I 0 W/m 0,0 km/h (0 Bft)
20.03.2014 04:14 8,0 C 5,6 C 83 % 1019,4 hPa 0,0 l/m 0 min 0 min 0,0 UV-I 0 W/m 0,0 km/h (0 Bft)
20.03.2014 04:16 7,8 C 5,6 C 83 % 1019,5 hPa 0,0 l/m 0 min 0 min 0,0 UV-I 0 W/m 2,6 km/h (1 Bft)
20.03.2014 04:18 7,7 C 5,6 C 84 % 1019,5 hPa 0,0 l/m 0 min 0 min 0,0 UV-I 0 W/m 0,0 km/h (0 Bft)
20.03.2014 04:20 7,6 C 5,6 C 84 % 1019,5 hPa 0,0 l/m 0 min 0 min 0,0 UV-I 0 W/m 0,0 km/h (0 Bft)
20.03.2014 04:22 7,4 C 5,6 C 84 % 1019,5 hPa 0,0 l/m 0 min 0 min 0,0 UV-I 0 W/m 2,6 km/h (1 Bft)
20.03.2014 04:24 7,3 C 5,6 C 84 % 1019,5 hPa 0,0 l/m 0 min 0 min 0,0 UV-I 0 W/m 2,6 km/h (1 Bft)
20.03.2014 04:26 7,3 C 5,6 C 85 % 1019,5 hPa 0,0 l/m 0 min 0 min 0,0 UV-I 0 W/m 0,0 km/h (0 Bft)
20.03.2014 04:28 7,2 C 5,6 C 85 % 1019,5 hPa 0,0 l/m 0 min 0 min 0,0 UV-I 0 W/m 5,1 km/h (1 Bft)
20.03.2014 04:30 7,1 C 5,0 C 85 % 1019,5 hPa 0,0 l/m 0 min 0 min 0,0 UV-I 0 W/m 5,1 km/h (1 Bft)
20.03.2014 04:32 7,1 C 5,0 C 85 % 1019,5 hPa 0,0 l/m 0 min 0 min 0,0 UV-I 0 W/m 5,1 km/h (1 Bft)
20.03.2014 04:34 7,0 C 5,0 C 86 % 1019,5 hPa 0,0 l/m 0 min 0 min 0,0 UV-I 0 W/m 7,7 km/h (2 Bft)
20.03.2014 04:36 6,9 C 5,0 C 86 % 1019,6 hPa 0,0 l/m 0 min 0 min 0,0 UV-I 0 W/m 7,7 km/h (2 Bft)
20.03.2014 04:38 6,9 C 5,0 C 86 % 1019,6 hPa 0,0 l/m 0 min 0 min 0,0 UV-I 0 W/m 0,0 km/h (0 Bft)
20.03.2014 04:40 6,9 C 5,0 C 86 % 1019,5 hPa 0,0 l/m 0 min 0 min 0,0 UV-I 0 W/m 0,0 km/h (0 Bft)
20.03.2014 04:42 6,8 C 5,0 C 86 % 1019,5 hPa 0,0 l/m 0 min 0 min 0,0 UV-I 0 W/m 0,0 km/h (0 Bft)
20.03.2014 04:44 6,8 C 5,0 C 86 % 1019,5 hPa 0,0 l/m 0 min 0 min 0,0 UV-I 0 W/m 2,6 km/h (1 Bft)
20.03.2014 04:46 6,7 C 5,0 C 86 % 1019,5 hPa 0,0 l/m 0 min 0 min 0,0 UV-I 0 W/m 0,0 km/h (0 Bft)
20.03.2014 04:48 6,7 C 5,0 C 86 % 1019,5 hPa 0,0 l/m 0 min 0 min 0,0 UV-I 0 W/m 0,0 km/h (0 Bft)
20.03.2014 04:50 6,7 C 5,0 C 86 % 1019,5 hPa 0,0 l/m 0 min 0 min 0,0 UV-I 0 W/m 0,0 km/h (0 Bft)
20.03.2014 04:52 6,7 C 5,0 C 86 % 1019,5 hPa 0,0 l/m 0 min 0 min 0,0 UV-I 0 W/m 0,0 km/h (0 Bft)
20.03.2014 04:54 6,6 C 5,0 C 86 % 1019,5 hPa 0,0 l/m 0 min 0 min 0,0 UV-I 0 W/m 7,7 km/h (2 Bft)
20.03.2014 04:56 6,6 C 5,0 C 86 % 1019,5 hPa 0,0 l/m 0 min 0 min 0,0 UV-I 0 W/m 7,7 km/h (2 Bft)
20.03.2014 04:58 6,5 C 4,4 C 86 % 1019,4 hPa 0,0 l/m 0 min 0 min 0,0 UV-I 0 W/m 7,7 km/h (2 Bft)
20.03.2014 05:00 6,4 C 4,4 C 86 % 1019,4 hPa 0,0 l/m 0 min 0 min 0,0 UV-I 0 W/m 10,3 km/h (2 Bft)
20.03.2014 05:02 6,4 C 4,4 C 86 % 1019,4 hPa 0,0 l/m 0 min 0 min 0,0 UV-I 0 W/m 0,0 km/h (0 Bft)
20.03.2014 05:06 6,3 C 4,4 C 87 % 1019,4 hPa 0,0 l/m 0 min 0 min 0,0 UV-I 0 W/m 10,3 km/h (2 Bft)
20.03.2014 05:08 6,3 C 4,4 C 86 % 1019,3 hPa 0,0 l/m 0 min 0 min 0,0 UV-I 0 W/m 5,1 km/h (1 Bft)
20.03.2014 05:10 6,2 C 4,4 C 86 % 1019,4 hPa 0,0 l/m 0 min 0 min 0,0 UV-I 0 W/m 2,6 km/h (1 Bft)
20.03.2014 05:12 6,2 C 4,4 C 87 % 1019,3 hPa 0,0 l/m 0 min 0 min 0,0 UV-I 0 W/m 0,0 km/h (0 Bft)
20.03.2014 05:14 6,2 C 4,4 C 87 % 1019,3 hPa 0,0 l/m 0 min 0 min 0,0 UV-I 0 W/m 2,6 km/h (1 Bft)
20.03.2014 05:16 6,1 C 4,4 C 87 % 1019,3 hPa 0,0 l/m 0 min 0 min 0,0 UV-I 0 W/m 0,0 km/h (0 Bft)
20.03.2014 05:18 6,1 C 4,4 C 87 % 1019,3 hPa 0,0 l/m 0 min 0 min 0,0 UV-I 0 W/m 7,7 km/h (2 Bft)
20.03.2014 05:20 6,0 C 4,4 C 87 % 1019,3 hPa 0,0 l/m 0 min 0 min 0,0 UV-I 0 W/m 7,7 km/h (2 Bft)
20.03.2014 05:22 5,9 C 4,4 C 87 % 1019,3 hPa 0,0 l/m 0 min 0 min 0,0 UV-I 0 W/m 7,7 km/h (2 Bft)
20.03.2014 05:24 5,9 C 4,4 C 87 % 1019,3 hPa 0,0 l/m 0 min 0 min 0,0 UV-I 0 W/m 12,9 km/h (3 Bft)
20.03.2014 05:26 5,9 C 4,4 C 87 % 1019,2 hPa 0,0 l/m 0 min 0 min 0,0 UV-I 0 W/m 10,3 km/h (2 Bft)
20.03.2014 05:28 5,9 C 4,4 C 87 % 1019,2 hPa 0,0 l/m 0 min 0 min 0,0 UV-I 0 W/m 10,3 km/h (2 Bft)
20.03.2014 05:30 5,9 C 4,4 C 87 % 1019,2 hPa 0,0 l/m 0 min 0 min 0,0 UV-I 0 W/m 0,0 km/h (0 Bft)
20.03.2014 05:32 5,8 C 4,4 C 87 % 1019,2 hPa 0,0 l/m 0 min 0 min 0,0 UV-I 0 W/m 2,6 km/h (1 Bft)
20.03.2014 05:34 5,8 C 4,4 C 87 % 1019,1 hPa 0,0 l/m 0 min 0 min 0,0 UV-I 0 W/m 7,7 km/h (2 Bft)
20.03.2014 05:36 5,7 C 4,4 C 87 % 1019,1 hPa 0,0 l/m 0 min 0 min 0,0 UV-I 0 W/m 7,7 km/h (2 Bft)
20.03.2014 05:38 5,7 C 4,4 C 87 % 1019,0 hPa 0,0 l/m 0 min 0 min 0,0 UV-I 0 W/m 10,3 km/h (2 Bft)
20.03.2014 05:40 5,7 C 4,4 C 88 % 1019,1 hPa 0,0 l/m 0 min 0 min 0,0 UV-I 0 W/m 10,3 km/h (2 Bft)
20.03.2014 05:42 5,7 C 4,4 C 88 % 1019,1 hPa 0,0 l/m 0 min 0 min 0,0 UV-I 0 W/m 10,3 km/h (2 Bft)
20.03.2014 05:44 5,7 C 4,4 C 88 % 1019,0 hPa 0,0 l/m 0 min 0 min 0,0 UV-I 0 W/m 7,7 km/h (2 Bft)
20.03.2014 05:46 5,7 C 4,4 C 88 % 1018,9 hPa 0,0 l/m 0 min 0 min 0,0 UV-I 0 W/m 7,7 km/h (2 Bft)
20.03.2014 05:48 5,6 C 3,9 C 88 % 1018,9 hPa 0,0 l/m 0 min 0 min 0,0 UV-I 0 W/m 5,1 km/h (1 Bft)
20.03.2014 05:50 5,6 C 3,9 C 88 % 1018,9 hPa 0,0 l/m 0 min 0 min 0,0 UV-I 0 W/m 12,9 km/h (3 Bft)
20.03.2014 05:52 5,6 C 3,9 C 88 % 1019,0 hPa 0,0 l/m 0 min 0 min 0,0 UV-I 0 W/m 7,7 km/h (2 Bft)
20.03.2014 05:54 5,5 C 3,9 C 88 % 1018,9 hPa 0,0 l/m 0 min 0 min 0,0 UV-I 0 W/m 7,7 km/h (2 Bft)
20.03.2014 05:56 5,5 C 3,9 C 88 % 1019,0 hPa 0,0 l/m 0 min 0 min 0,0 UV-I 0 W/m 10,3 km/h (2 Bft)
20.03.2014 05:58 5,4 C 3,9 C 88 % 1019,0 hPa 0,0 l/m 0 min 0 min 0,0 UV-I 0 W/m 10,3 km/h (2 Bft)
20.03.2014 06:00 5,4 C 3,9 C 88 % 1018,9 hPa 0,0 l/m 0 min 0 min 0,0 UV-I 0 W/m 7,7 km/h (2 Bft)
20.03.2014 06:02 5,4 C 3,9 C 88 % 1018,9 hPa 0,0 l/m 0 min 0 min 0,0 UV-I 0 W/m 5,1 km/h (1 Bft)
20.03.2014 06:06 5,3 C 3,9 C 89 % 1018,9 hPa 0,0 l/m 0 min 0 min 0,0 UV-I 0 W/m 2,6 km/h (1 Bft)
20.03.2014 06:08 5,2 C 3,9 C 89 % 1018,8 hPa 0,0 l/m 0 min 0 min 0,0 UV-I 0 W/m 5,1 km/h (1 Bft)
20.03.2014 06:10 5,2 C 3,9 C 89 % 1018,9 hPa 0,0 l/m 0 min 0 min 0,0 UV-I 0 W/m 7,7 km/h (2 Bft)
20.03.2014 06:12 5,2 C 3,9 C 89 % 1018,9 hPa 0,0 l/m 0 min 0 min 0,0 UV-I 0 W/m 10,3 km/h (2 Bft)
20.03.2014 06:14 5,2 C 3,9 C 89 % 1018,8 hPa 0,0 l/m 0 min 0 min 0,0 UV-I 0 W/m 10,3 km/h (2 Bft)
20.03.2014 06:16 5,2 C 3,9 C 89 % 1018,8 hPa 0,0 l/m 0 min 0 min 0,0 UV-I 0 W/m 10,3 km/h (2 Bft)
20.03.2014 06:18 5,2 C 3,9 C 89 % 1018,8 hPa 0,0 l/m 0 min 0 min 0,0 UV-I 0 W/m 7,7 km/h (2 Bft)
20.03.2014 06:20 5,2 C 3,9 C 89 % 1018,8 hPa 0,0 l/m 0 min 0 min 0,0 UV-I 0 W/m 7,7 km/h (2 Bft)
20.03.2014 06:22 5,2 C 3,9 C 90 % 1018,9 hPa 0,0 l/m 0 min 0 min 0,0 UV-I 0 W/m 7,7 km/h (2 Bft)
20.03.2014 06:24 5,2 C 3,9 C 90 % 1018,8 hPa 0,0 l/m 0 min 0 min 0,0 UV-I 0 W/m 7,7 km/h (2 Bft)
20.03.2014 06:26 5,2 C 3,9 C 90 % 1018,8 hPa 0,0 l/m 0 min 0 min 0,0 UV-I 0 W/m 5,1 km/h (1 Bft)
20.03.2014 06:28 5,2 C 3,9 C 90 % 1018,9 hPa 0,0 l/m 0 min 0 min 0,0 UV-I 0 W/m 0,0 km/h (0 Bft)
20.03.2014 06:30 5,1 C 3,9 C 90 % 1018,8 hPa 0,0 l/m 0 min 0 min 0,0 UV-I 0 W/m 7,7 km/h (2 Bft)
20.03.2014 06:32 5,1 C 3,9 C 90 % 1018,8 hPa 0,0 l/m 0 min 0 min 0,0 UV-I 0 W/m 5,1 km/h (1 Bft)
20.03.2014 06:34 5,1 C 3,9 C 90 % 1018,8 hPa 0,0 l/m 0 min 0 min 0,0 UV-I 0 W/m 2,6 km/h (1 Bft)
20.03.2014 06:36 5,1 C 3,9 C 90 % 1018,8 hPa 0,0 l/m 0 min 0 min 0,0 UV-I 0 W/m 0,0 km/h (0 Bft)
20.03.2014 06:38 5,1 C 3,9 C 90 % 1018,8 hPa 0,0 l/m 0 min 0 min 0,0 UV-I 0 W/m 7,7 km/h (2 Bft)
20.03.2014 06:40 5,1 C 3,9 C 90 % 1018,8 hPa 0,0 l/m 0 min 0 min 0,0 UV-I 5 W/m 7,7 km/h (2 Bft)
20.03.2014 06:42 5,1 C 3,9 C 90 % 1018,8 hPa 0,0 l/m 0 min 0 min 0,0 UV-I 5 W/m 10,3 km/h (2 Bft)
20.03.2014 06:44 5,1 C 3,9 C 90 % 1018,8 hPa 0,0 l/m 0 min 0 min 0,0 UV-I 5 W/m 10,3 km/h (2 Bft)
20.03.2014 06:46 5,1 C 3,9 C 90 % 1018,8 hPa 0,0 l/m 0 min 0 min 0,0 UV-I 7 W/m 7,7 km/h (2 Bft)
20.03.2014 06:48 5,1 C 3,9 C 90 % 1018,8 hPa 0,0 l/m 0 min 0 min 0,0 UV-I 9 W/m 7,7 km/h (2 Bft)
20.03.2014 06:50 5,1 C 3,9 C 90 % 1018,7 hPa 0,0 l/m 0 min 0 min 0,0 UV-I 9 W/m 10,3 km/h (2 Bft)
20.03.2014 06:52 5,1 C 3,9 C 90 % 1018,7 hPa 0,0 l/m 0 min 0 min 0,0 UV-I 11 W/m 5,1 km/h (1 Bft)
20.03.2014 06:54 5,1 C 3,9 C 91 % 1018,7 hPa 0,0 l/m 0 min 0 min 0,0 UV-I 12 W/m 10,3 km/h (2 Bft)
20.03.2014 06:56 5,1 C 3,9 C 91 % 1018,7 hPa 0,0 l/m 0 min 0 min 0,0 UV-I 12 W/m 7,7 km/h (2 Bft)
20.03.2014 06:58 5,1 C 3,9 C 91 % 1018,7 hPa 0,0 l/m 0 min 0 min 0,0 UV-I 12 W/m 12,9 km/h (3 Bft)
20.03.2014 07:00 5,2 C 3,9 C 91 % 1018,8 hPa 0,0 l/m 0 min 0 min 0,0 UV-I 14 W/m 7,7 km/h (2 Bft)
20.03.2014 07:02 5,2 C 3,9 C 91 % 1018,8 hPa 0,0 l/m 0 min 0 min 0,0 UV-I 14 W/m 10,3 km/h (2 Bft)
20.03.2014 07:06 5,2 C 3,9 C 91 % 1018,7 hPa 0,0 l/m 0 min 0 min 0,0 UV-I 18 W/m 10,3 km/h (2 Bft)
20.03.2014 07:08 5,2 C 3,9 C 91 % 1018,7 hPa 0,0 l/m 0 min 0 min 0,0 UV-I 18 W/m 10,3 km/h (2 Bft)
20.03.2014 07:10 5,3 C 3,9 C 91 % 1018,7 hPa 0,0 l/m 0 min 0 min 0,0 UV-I 19 W/m 10,3 km/h (2 Bft)
20.03.2014 07:12 5,3 C 3,9 C 91 % 1018,7 hPa 0,0 l/m 0 min 0 min 0,0 UV-I 21 W/m 12,9 km/h (3 Bft)
20.03.2014 07:14 5,3 C 3,9 C 91 % 1018,7 hPa 0,0 l/m 0 min 0 min 0,0 UV-I 21 W/m 7,7 km/h (2 Bft)
20.03.2014 07:16 5,3 C 3,9 C 91 % 1018,7 hPa 0,0 l/m 0 min 0 min 0,0 UV-I 23 W/m 12,9 km/h (3 Bft)
20.03.2014 07:18 5,4 C 4,4 C 91 % 1018,7 hPa 0,0 l/m 0 min 0 min 0,0 UV-I 23 W/m 10,3 km/h (2 Bft)
20.03.2014 07:20 5,4 C 4,4 C 91 % 1018,7 hPa 0,0 l/m 0 min 0 min 0,0 UV-I 25 W/m 12,9 km/h (3 Bft)
20.03.2014 07:22 5,4 C 4,4 C 91 % 1018,6 hPa 0,0 l/m 0 min 0 min 0,0 UV-I 25 W/m 5,1 km/h (1 Bft)
20.03.2014 07:24 5,5 C 4,4 C 91 % 1018,6 hPa 0,0 l/m 0 min 0 min 0,0 UV-I 25 W/m 2,6 km/h (1 Bft)
20.03.2014 07:26 5,5 C 4,4 C 91 % 1018,6 hPa 0,0 l/m 0 min 0 min 0,0 UV-I 26 W/m 0,0 km/h (0 Bft)
20.03.2014 07:28 5,6 C 4,4 C 91 % 1018,6 hPa 0,0 l/m 0 min 0 min 0,0 UV-I 26 W/m 0,0 km/h (0 Bft)
20.03.2014 07:30 5,6 C 4,4 C 91 % 1018,5 hPa 0,0 l/m 0 min 0 min 0,0 UV-I 25 W/m 7,7 km/h (2 Bft)
20.03.2014 07:32 5,7 C 4,4 C 91 % 1018,6 hPa 0,0 l/m 0 min 0 min 0,0 UV-I 28 W/m 7,7 km/h (2 Bft)
20.03.2014 07:34 5,7 C 4,4 C 91 % 1018,6 hPa 0,0 l/m 0 min 0 min 0,0 UV-I 47 W/m 0,0 km/h (0 Bft)
20.03.2014 07:36 5,7 C 4,4 C 91 % 1018,6 hPa 0,0 l/m 0 min 0 min 0,0 UV-I 60 W/m 2,6 km/h (1 Bft)
20.03.2014 07:38 5,8 C 4,4 C 91 % 1018,6 hPa 0,0 l/m 0 min 0 min 0,0 UV-I 65 W/m 7,7 km/h (2 Bft)
20.03.2014 07:40 5,8 C 4,4 C 91 % 1018,6 hPa 0,0 l/m 0 min 0 min 0,0 UV-I 77 W/m 2,6 km/h (1 Bft)
20.03.2014 07:42 5,9 C 4,4 C 91 % 1018,6 hPa 0,0 l/m 0 min 0 min 0,0 UV-I 88 W/m 12,9 km/h (3 Bft)
20.03.2014 07:44 5,9 C 5,0 C 91 % 1018,5 hPa 0,0 l/m 2 min 0 min 0,0 UV-I 95 W/m 10,3 km/h (2 Bft)
20.03.2014 07:46 6,0 C 5,0 C 91 % 1018,5 hPa 0,0 l/m 2 min 0 min 0,0 UV-I 105 W/m 10,3 km/h (2 Bft)
20.03.2014 07:48 6,1 C 5,0 C 90 % 1018,5 hPa 0,0 l/m 0 min 0 min 0,0 UV-I 83 W/m 10,3 km/h (2 Bft)
20.03.2014 07:50 6,1 C 5,0 C 91 % 1018,5 hPa 0,0 l/m 2 min 0 min 0,0 UV-I 116 W/m 7,7 km/h (2 Bft)
20.03.2014 07:52 6,2 C 5,0 C 90 % 1018,5 hPa 0,0 l/m 2 min 0 min 0,0 UV-I 118 W/m 10,3 km/h (2 Bft)
20.03.2014 07:54 6,2 C 5,0 C 90 % 1018,6 hPa 0,0 l/m 2 min 0 min 0,0 UV-I 127 W/m 15,4 km/h (3 Bft)
20.03.2014 07:56 6,3 C 5,0 C 90 % 1018,5 hPa 0,0 l/m 2 min 0 min 0,0 UV-I 130 W/m 15,4 km/h (3 Bft)
20.03.2014 07:58 6,4 C 5,0 C 90 % 1018,5 hPa 0,0 l/m 2 min 0 min 0,0 UV-I 137 W/m 12,9 km/h (3 Bft)
20.03.2014 08:00 6,5 C 5,0 C 90 % 1018,5 hPa 0,0 l/m 2 min 0 min 0,0 UV-I 142 W/m 10,3 km/h (2 Bft)
20.03.2014 08:02 6,6 C 5,6 C 90 % 1018,5 hPa 0,0 l/m 2 min 0 min 0,0 UV-I 149 W/m 15,4 km/h (3 Bft)
20.03.2014 08:06 6,8 C 5,6 C 90 % 1018,5 hPa 0,0 l/m 2 min 0 min 0,0 UV-I 162 W/m 12,9 km/h (3 Bft)
20.03.2014 08:08 6,9 C 5,6 C 89 % 1018,5 hPa 0,0 l/m 2 min 0 min 0,0 UV-I 167 W/m 12,9 km/h (3 Bft)
20.03.2014 08:10 7,0 C 5,6 C 89 % 1018,5 hPa 0,0 l/m 2 min 0 min 0,0 UV-I 176 W/m 15,4 km/h (3 Bft)
20.03.2014 08:12 7,1 C 5,6 C 89 % 1018,5 hPa 0,0 l/m 2 min 0 min 0,0 UV-I 181 W/m 18,0 km/h (3 Bft)
20.03.2014 08:14 7,2 C 5,6 C 89 % 1018,4 hPa 0,0 l/m 2 min 0 min 0,0 UV-I 186 W/m 15,4 km/h (3 Bft)
20.03.2014 08:16 7,3 C 5,6 C 89 % 1018,4 hPa 0,0 l/m 2 min 0 min 0,0 UV-I 193 W/m 12,9 km/h (3 Bft)
20.03.2014 08:18 7,3 C 6,1 C 88 % 1018,4 hPa 0,0 l/m 2 min 0 min 0,0 UV-I 199 W/m 12,9 km/h (3 Bft)
20.03.2014 08:20 7,4 C 6,1 C 88 % 1018,4 hPa 0,0 l/m 2 min 0 min 0,0 UV-I 204 W/m 10,3 km/h (2 Bft)
20.03.2014 08:22 7,5 C 6,1 C 88 % 1018,4 hPa 0,0 l/m 2 min 0 min 0,0 UV-I 213 W/m 7,7 km/h (2 Bft)
20.03.2014 08:24 7,6 C 6,1 C 88 % 1018,3 hPa 0,0 l/m 2 min 0 min 0,0 UV-I 218 W/m 15,4 km/h (3 Bft)
20.03.2014 08:26 7,7 C 6,1 C 87 % 1018,4 hPa 0,0 l/m 2 min 0 min 0,0 UV-I 223 W/m 2,6 km/h (1 Bft)
20.03.2014 08:28 7,8 C 6,1 C 87 % 1018,4 hPa 0,0 l/m 2 min 0 min 0,0 UV-I 232 W/m 12,9 km/h (3 Bft)
20.03.2014 08:30 7,9 C 6,7 C 87 % 1018,4 hPa 0,0 l/m 2 min 0 min 0,0 UV-I 237 W/m 10,3 km/h (2 Bft)
20.03.2014 08:32 8,0 C 6,7 C 87 % 1018,3 hPa 0,0 l/m 2 min 0 min 0,0 UV-I 241 W/m 12,9 km/h (3 Bft)
20.03.2014 08:34 8,1 C 6,7 C 87 % 1018,4 hPa 0,0 l/m 2 min 0 min 0,0 UV-I 248 W/m 10,3 km/h (2 Bft)
20.03.2014 08:36 8,2 C 6,7 C 86 % 1018,3 hPa 0,0 l/m 2 min 0 min 0,0 UV-I 251 W/m 12,9 km/h (3 Bft)
20.03.2014 08:38 8,3 C 6,7 C 87 % 1018,3 hPa 0,0 l/m 2 min 0 min 0,0 UV-I 258 W/m 7,7 km/h (2 Bft)
20.03.2014 08:40 8,4 C 6,7 C 86 % 1018,3 hPa 0,0 l/m 2 min 0 min 0,0 UV-I 260 W/m 15,4 km/h (3 Bft)
20.03.2014 08:42 8,5 C 6,7 C 86 % 1018,4 hPa 0,0 l/m 2 min 0 min 0,0 UV-I 264 W/m 15,4 km/h (3 Bft)
20.03.2014 08:44 8,6 C 7,2 C 86 % 1018,3 hPa 0,0 l/m 2 min 0 min 0,0 UV-I 271 W/m 12,9 km/h (3 Bft)
20.03.2014 08:46 8,7 C 7,2 C 85 % 1018,2 hPa 0,0 l/m 2 min 0 min 0,0 UV-I 278 W/m 18,0 km/h (3 Bft)
20.03.2014 08:48 8,8 C 7,2 C 84 % 1018,2 hPa 0,0 l/m 2 min 0 min 0,0 UV-I 281 W/m 12,9 km/h (3 Bft)
20.03.2014 08:50 8,9 C 7,2 C 84 % 1018,2 hPa 0,0 l/m 2 min 0 min 0,0 UV-I 278 W/m 23,2 km/h (4 Bft)
20.03.2014 08:52 9,0 C 7,2 C 84 % 1018,2 hPa 0,0 l/m 2 min 0 min 0,0 UV-I 285 W/m 18,0 km/h (3 Bft)
20.03.2014 08:54 9,1 C 7,2 C 83 % 1018,1 hPa 0,0 l/m 2 min 0 min 0,0 UV-I 288 W/m 18,0 km/h (3 Bft)
20.03.2014 08:56 9,2 C 7,2 C 83 % 1018,1 hPa 0,0 l/m 2 min 0 min 0,0 UV-I 290 W/m 10,3 km/h (2 Bft)
20.03.2014 08:58 9,2 C 7,8 C 83 % 1018,1 hPa 0,0 l/m 2 min 0 min 0,0 UV-I 290 W/m 10,3 km/h (2 Bft)
20.03.2014 09:00 9,3 C 7,8 C 82 % 1018,1 hPa 0,0 l/m 2 min 0 min 0,0 UV-I 313 W/m 12,9 km/h (3 Bft)
20.03.2014 09:02 9,4 C 7,8 C 82 % 1018,2 hPa 0,0 l/m 2 min 0 min 0,0 UV-I 322 W/m 2,6 km/h (1 Bft)
20.03.2014 09:06 9,7 C 7,8 C 81 % 1018,2 hPa 0,0 l/m 2 min 0 min 0,0 UV-I 332 W/m 18,0 km/h (3 Bft)
20.03.2014 09:08 9,9 C 7,8 C 81 % 1018,2 hPa 0,0 l/m 2 min 0 min 0,0 UV-I 338 W/m 10,3 km/h (2 Bft)
20.03.2014 09:10 10,1 C 8,3 C 81 % 1018,2 hPa 0,0 l/m 2 min 0 min 0,0 UV-I 341 W/m 12,9 km/h (3 Bft)
20.03.2014 09:12 10,2 C 8,3 C 80 % 1018,1 hPa 0,0 l/m 2 min 0 min 0,0 UV-I 343 W/m 10,3 km/h (2 Bft)
20.03.2014 09:14 10,3 C 8,3 C 80 % 1018,1 hPa 0,0 l/m 2 min 0 min 0,0 UV-I 348 W/m 15,4 km/h (3 Bft)
20.03.2014 09:16 10,4 C 8,3 C 79 % 1018,0 hPa 0,0 l/m 2 min 0 min 0,0 UV-I 352 W/m 15,4 km/h (3 Bft)
20.03.2014 09:18 10,6 C 8,3 C 79 % 1018,0 hPa 0,0 l/m 2 min 0 min 0,0 UV-I 359 W/m 12,9 km/h (3 Bft)
20.03.2014 09:20 10,7 C 8,9 C 78 % 1018,0 hPa 0,0 l/m 2 min 0 min 0,0 UV-I 367 W/m 12,9 km/h (3 Bft)
20.03.2014 09:22 10,8 C 8,9 C 78 % 1018,0 hPa 0,0 l/m 2 min 0 min 0,0 UV-I 371 W/m 18,0 km/h (3 Bft)
20.03.2014 09:24 10,8 C 8,9 C 77 % 1017,9 hPa 0,0 l/m 2 min 0 min 0,0 UV-I 378 W/m 20,6 km/h (4 Bft)
20.03.2014 09:26 10,9 C 8,9 C 77 % 1017,9 hPa 0,0 l/m 2 min 0 min 0,0 UV-I 367 W/m 23,2 km/h (4 Bft)
20.03.2014 09:28 11,1 C 8,9 C 77 % 1017,9 hPa 0,0 l/m 2 min 0 min 0,0 UV-I 380 W/m 23,2 km/h (4 Bft)
20.03.2014 09:30 11,1 C 8,9 C 76 % 1017,9 hPa 0,0 l/m 2 min 0 min 0,0 UV-I 380 W/m 23,2 km/h (4 Bft)
20.03.2014 09:32 11,2 C 9,4 C 76 % 1017,9 hPa 0,0 l/m 2 min 0 min 0,0 UV-I 381 W/m 18,0 km/h (3 Bft)
20.03.2014 09:34 11,4 C 9,4 C 76 % 1017,9 hPa 0,0 l/m 2 min 0 min 0,0 UV-I 394 W/m 10,3 km/h (2 Bft)
20.03.2014 09:36 11,4 C 9,4 C 76 % 1017,8 hPa 0,0 l/m 2 min 0 min 0,5 UV-I 404 W/m 23,2 km/h (4 Bft)
20.03.2014 09:38 11,6 C 9,4 C 76 % 1017,8 hPa 0,0 l/m 2 min 0 min 0,5 UV-I 387 W/m 15,4 km/h (3 Bft)
20.03.2014 09:40 11,8 C 9,4 C 75 % 1017,8 hPa 0,0 l/m 2 min 0 min 0,5 UV-I 378 W/m 15,4 km/h (3 Bft)
20.03.2014 09:42 11,9 C 10,0 C 74 % 1017,8 hPa 0,0 l/m 2 min 0 min 0,5 UV-I 381 W/m 18,0 km/h (3 Bft)
20.03.2014 09:44 12,0 C 10,0 C 74 % 1017,8 hPa 0,0 l/m 2 min 0 min 0,5 UV-I 350 W/m 20,6 km/h (4 Bft)
20.03.2014 09:46 12,1 C 10,0 C 74 % 1017,8 hPa 0,0 l/m 2 min 0 min 0,5 UV-I 343 W/m 12,9 km/h (3 Bft)
20.03.2014 09:48 12,1 C 10,0 C 74 % 1017,7 hPa 0,0 l/m 2 min 0 min 0,5 UV-I 392 W/m 12,9 km/h (3 Bft)
20.03.2014 09:50 12,2 C 10,0 C 74 % 1017,6 hPa 0,0 l/m 2 min 0 min 0,6 UV-I 396 W/m 10,3 km/h (2 Bft)
20.03.2014 09:52 12,3 C 10,0 C 74 % 1017,5 hPa 0,0 l/m 2 min 0 min 0,6 UV-I 408 W/m 10,3 km/h (2 Bft)
20.03.2014 09:54 12,4 C 10,6 C 73 % 1017,5 hPa 0,0 l/m 2 min 0 min 0,7 UV-I 429 W/m 18,0 km/h (3 Bft)
20.03.2014 09:56 12,7 C 10,6 C 74 % 1017,5 hPa 0,0 l/m 2 min 0 min 0,7 UV-I 431 W/m 15,4 km/h (3 Bft)
20.03.2014 09:58 12,9 C 10,6 C 72 % 1017,5 hPa 0,0 l/m 2 min 0 min 0,7 UV-I 427 W/m 18,0 km/h (3 Bft)
20.03.2014 10:00 12,9 C 11,1 C 72 % 1017,5 hPa 0,0 l/m 2 min 0 min 0,7 UV-I 445 W/m 18,0 km/h (3 Bft)
20.03.2014 10:02 12,9 C 11,1 C 72 % 1017,4 hPa 0,0 l/m 2 min 0 min 0,7 UV-I 424 W/m 15,4 km/h (3 Bft)
20.03.2014 10:06 13,2 C 11,1 C 71 % 1017,4 hPa 0,0 l/m 2 min 0 min 0,8 UV-I 446 W/m 15,4 km/h (3 Bft)
20.03.2014 10:08 13,2 C 11,7 C 71 % 1017,4 hPa 0,0 l/m 2 min 0 min 0,8 UV-I 459 W/m 12,9 km/h (3 Bft)
20.03.2014 10:10 13,3 C 11,7 C 71 % 1017,4 hPa 0,0 l/m 2 min 0 min 0,8 UV-I 468 W/m 12,9 km/h (3 Bft)
20.03.2014 10:12 13,5 C 11,7 C 70 % 1017,3 hPa 0,0 l/m 2 min 0 min 0,9 UV-I 462 W/m 12,9 km/h (3 Bft)
20.03.2014 10:14 13,7 C 11,7 C 70 % 1017,4 hPa 0,0 l/m 2 min 0 min 0,9 UV-I 436 W/m 12,9 km/h (3 Bft)
20.03.2014 10:15 13,7 C 11,7 C 69 % 1017,3 hPa 0,0 l/m 1 min 0 min 0,9 UV-I 473 W/m 15,4 km/h (3 Bft)
20.03.2014 10:20 14,0 C 12,2 C 69 % 1017,2 hPa 0,0 l/m 2 min 0 min 1,0 UV-I 489 W/m 12,9 km/h (3 Bft)
20.03.2014 10:22 14,1 C 12,2 C 69 % 1017,2 hPa 0,0 l/m 2 min 0 min 1,0 UV-I 482 W/m 12,9 km/h (3 Bft)
20.03.2014 10:24 14,2 C 12,2 C 69 % 1017,2 hPa 0,0 l/m 2 min 0 min 1,0 UV-I 480 W/m 15,4 km/h (3 Bft)
20.03.2014 10:26 14,2 C 12,2 C 70 % 1017,1 hPa 0,0 l/m 2 min 0 min 1,0 UV-I 482 W/m 7,7 km/h (2 Bft)
20.03.2014 10:28 14,4 C 12,8 C 69 % 1017,1 hPa 0,0 l/m 2 min 0 min 1,0 UV-I 462 W/m 10,3 km/h (2 Bft)
20.03.2014 10:30 14,5 C 12,8 C 68 % 1017,1 hPa 0,0 l/m 2 min 0 min 1,0 UV-I 466 W/m 12,9 km/h (3 Bft)
20.03.2014 10:32 14,4 C 12,8 C 68 % 1017,1 hPa 0,0 l/m 2 min 0 min 1,0 UV-I 446 W/m 12,9 km/h (3 Bft)
20.03.2014 10:34 14,6 C 12,8 C 67 % 1017,0 hPa 0,0 l/m 2 min 0 min 1,0 UV-I 461 W/m 10,3 km/h (2 Bft)
20.03.2014 10:36 14,4 C 12,8 C 67 % 1017,0 hPa 0,0 l/m 2 min 0 min 1,1 UV-I 469 W/m 5,1 km/h (1 Bft)
20.03.2014 10:38 14,6 C 12,8 C 67 % 1017,0 hPa 0,0 l/m 2 min 0 min 1,0 UV-I 448 W/m 18,0 km/h (3 Bft)
20.03.2014 10:40 14,7 C 12,8 C 66 % 1016,9 hPa 0,0 l/m 2 min 0 min 1,1 UV-I 459 W/m 12,9 km/h (3 Bft)
20.03.2014 10:42 14,9 C 12,8 C 68 % 1016,9 hPa 0,0 l/m 2 min 0 min 1,2 UV-I 508 W/m 10,3 km/h (2 Bft)
20.03.2014 10:44 15,2 C 13,3 C 67 % 1016,9 hPa 0,0 l/m 2 min 0 min 1,2 UV-I 512 W/m 12,9 km/h (3 Bft)
20.03.2014 10:46 15,3 C 13,3 C 65 % 1016,9 hPa 0,0 l/m 2 min 0 min 1,2 UV-I 512 W/m 15,4 km/h (3 Bft)
20.03.2014 10:48 15,3 C 13,3 C 65 % 1016,8 hPa 0,0 l/m 2 min 0 min 1,2 UV-I 485 W/m 10,3 km/h (2 Bft)
20.03.2014 10:50 15,3 C 13,3 C 65 % 1016,8 hPa 0,0 l/m 2 min 0 min 1,2 UV-I 476 W/m 18,0 km/h (3 Bft)
20.03.2014 10:52 15,3 C 13,3 C 66 % 1016,8 hPa 0,0 l/m 2 min 0 min 1,3 UV-I 519 W/m 12,9 km/h (3 Bft)
20.03.2014 10:54 15,6 C 13,9 C 66 % 1016,8 hPa 0,0 l/m 2 min 0 min 1,2 UV-I 480 W/m 15,4 km/h (3 Bft)
20.03.2014 10:56 15,7 C 13,9 C 65 % 1016,8 hPa 0,0 l/m 2 min 0 min 1,2 UV-I 478 W/m 10,3 km/h (2 Bft)
20.03.2014 10:58 15,7 C 13,9 C 64 % 1016,8 hPa 0,0 l/m 2 min 0 min 1,4 UV-I 529 W/m 12,9 km/h (3 Bft)
20.03.2014 11:00 15,7 C 13,9 C 64 % 1016,8 hPa 0,0 l/m 2 min 0 min 1,1 UV-I 527 W/m 10,3 km/h (2 Bft)
20.03.2014 11:04 15,7 C 13,9 C 63 % 1016,6 hPa 0,0 l/m 2 min 0 min 1,3 UV-I 434 W/m 15,4 km/h (3 Bft)
20.03.2014 11:06 15,8 C 13,9 C 64 % 1016,5 hPa 0,0 l/m 2 min 0 min 1,0 UV-I 555 W/m 15,4 km/h (3 Bft)
20.03.2014 11:08 15,9 C 13,9 C 64 % 1016,5 hPa 0,0 l/m 2 min 0 min 1,3 UV-I 438 W/m 18,0 km/h (3 Bft)
20.03.2014 11:10 15,8 C 13,9 C 64 % 1016,4 hPa 0,0 l/m 2 min 0 min 1,4 UV-I 499 W/m 12,9 km/h (3 Bft)
20.03.2014 11:12 15,9 C 13,9 C 66 % 1016,3 hPa 0,0 l/m 2 min 0 min 1,4 UV-I 533 W/m 5,1 km/h (1 Bft)
20.03.2014 11:14 16,1 C 14,4 C 64 % 1016,3 hPa 0,0 l/m 2 min 0 min 1,0 UV-I 527 W/m 10,3 km/h (2 Bft)
20.03.2014 11:16 16,1 C 13,9 C 63 % 1016,3 hPa 0,0 l/m 0 min 0 min 0,8 UV-I 234 W/m 15,4 km/h (3 Bft)
20.03.2014 11:18 15,9 C 13,9 C 64 % 1016,2 hPa 0,0 l/m 0 min 0 min 1,4 UV-I 292 W/m 7,7 km/h (2 Bft)
20.03.2014 11:20 15,9 C 13,9 C 64 % 1016,2 hPa 0,0 l/m 2 min 0 min 1,3 UV-I 446 W/m 12,9 km/h (3 Bft)
20.03.2014 11:22 15,9 C 13,9 C 64 % 1016,1 hPa 0,0 l/m 2 min 0 min 1,1 UV-I 345 W/m 18,0 km/h (3 Bft)
20.03.2014 11:24 16,1 C 13,9 C 65 % 1016,1 hPa 0,0 l/m 2 min 0 min 1,5 UV-I 563 W/m 7,7 km/h (2 Bft)
20.03.2014 11:26 16,2 C 14,4 C 65 % 1016,1 hPa 0,0 l/m 2 min 0 min 1,7 UV-I 606 W/m 12,9 km/h (3 Bft)
20.03.2014 11:28 16,3 C 14,4 C 64 % 1016,0 hPa 0,0 l/m 2 min 0 min 1,7 UV-I 626 W/m 12,9 km/h (3 Bft)
20.03.2014 11:30 16,4 C 15,0 C 63 % 1015,9 hPa 0,0 l/m 2 min 0 min 1,8 UV-I 624 W/m 20,6 km/h (4 Bft)
20.03.2014 11:32 16,7 C 15,0 C 62 % 1015,8 hPa 0,0 l/m 2 min 0 min 1,8 UV-I 640 W/m 15,4 km/h (3 Bft)
20.03.2014 11:34 16,9 C 15,0 C 61 % 1015,8 hPa 0,0 l/m 2 min 0 min 1,5 UV-I 631 W/m 12,9 km/h (3 Bft)
20.03.2014 11:36 16,9 C 15,0 C 61 % 1015,8 hPa 0,0 l/m 2 min 0 min 1,5 UV-I 631 W/m 20,6 km/h (4 Bft)
20.03.2014 11:38 17,0 C 15,0 C 62 % 1015,8 hPa 0,0 l/m 2 min 0 min 1,8 UV-I 621 W/m 18,0 km/h (3 Bft)
20.03.2014 11:40 17,1 C 15,0 C 62 % 1015,7 hPa 0,0 l/m 2 min 0 min 1,8 UV-I 643 W/m 18,0 km/h (3 Bft)
20.03.2014 11:42 17,2 C 15,6 C 62 % 1015,8 hPa 0,0 l/m 2 min 0 min 1,7 UV-I 635 W/m 10,3 km/h (2 Bft)
20.03.2014 11:44 17,3 C 15,6 C 60 % 1015,8 hPa 0,0 l/m 2 min 0 min 1,2 UV-I 635 W/m 15,4 km/h (3 Bft)
20.03.2014 11:46 17,2 C 15,6 C 61 % 1015,7 hPa 0,0 l/m 2 min 0 min 1,5 UV-I 554 W/m 10,3 km/h (2 Bft)
20.03.2014 11:48 17,2 C 15,6 C 62 % 1015,6 hPa 0,0 l/m 2 min 0 min 1,3 UV-I 476 W/m 10,3 km/h (2 Bft)
20.03.2014 11:50 17,3 C 15,6 C 62 % 1015,6 hPa 0,0 l/m 2 min 0 min 1,1 UV-I 401 W/m 18,0 km/h (3 Bft)
20.03.2014 11:52 17,3 C 15,6 C 61 % 1015,6 hPa 0,0 l/m 2 min 0 min 1,1 UV-I 364 W/m 18,0 km/h (3 Bft)
20.03.2014 11:54 17,2 C 15,0 C 61 % 1015,5 hPa 0,0 l/m 2 min 0 min 1,1 UV-I 364 W/m 10,3 km/h (2 Bft)
20.03.2014 11:56 17,1 C 15,0 C 61 % 1015,6 hPa 0,0 l/m 2 min 0 min 1,0 UV-I 457 W/m 10,3 km/h (2 Bft)
20.03.2014 11:58 17,1 C 15,0 C 61 % 1015,5 hPa 0,0 l/m 2 min 0 min 0,9 UV-I 555 W/m 10,3 km/h (2 Bft)
20.03.2014 12:00 17,3 C 15,6 C 62 % 1015,5 hPa 0,0 l/m 2 min 0 min 0,9 UV-I 601 W/m 15,4 km/h (3 Bft)
20.03.2014 12:02 17,5 C 15,6 C 61 % 1015,4 hPa 0,0 l/m 2 min 0 min 0,8 UV-I 506 W/m 25,7 km/h (4 Bft)
20.03.2014 12:06 18,1 C 16,1 C 61 % 1015,3 hPa 0,0 l/m 2 min 0 min 0,8 UV-I 606 W/m 23,2 km/h (4 Bft)
20.03.2014 12:08 18,1 C 16,1 C 58 % 1015,2 hPa 0,0 l/m 2 min 0 min 0,8 UV-I 624 W/m 20,6 km/h (4 Bft)
20.03.2014 12:10 18,1 C 16,1 C 59 % 1015,1 hPa 0,0 l/m 2 min 0 min 0,8 UV-I 610 W/m 20,6 km/h (4 Bft)
20.03.2014 12:12 18,1 C 16,1 C 59 % 1015,0 hPa 0,0 l/m 2 min 0 min 0,8 UV-I 622 W/m 18,0 km/h (3 Bft)
20.03.2014 12:14 18,1 C 16,1 C 58 % 1015,1 hPa 0,0 l/m 2 min 0 min 0,8 UV-I 631 W/m 23,2 km/h (4 Bft)
20.03.2014 12:16 18,1 C 16,1 C 59 % 1015,0 hPa 0,0 l/m 2 min 0 min 0,8 UV-I 619 W/m 23,2 km/h (4 Bft)
20.03.2014 12:18 18,1 C 16,1 C 59 % 1015,0 hPa 0,0 l/m 2 min 0 min 0,8 UV-I 626 W/m 20,6 km/h (4 Bft)
20.03.2014 12:20 18,1 C 16,1 C 58 % 1015,0 hPa 0,0 l/m 2 min 0 min 0,8 UV-I 622 W/m 20,6 km/h (4 Bft)
20.03.2014 12:22 18,2 C 16,1 C 58 % 1015,0 hPa 0,0 l/m 2 min 0 min 0,8 UV-I 633 W/m 18,0 km/h (3 Bft)
20.03.2014 12:24 18,2 C 16,1 C 57 % 1014,9 hPa 0,0 l/m 2 min 0 min 0,9 UV-I 633 W/m 20,6 km/h (4 Bft)
20.03.2014 12:26 18,3 C 16,1 C 58 % 1014,8 hPa 0,0 l/m 2 min 0 min 0,8 UV-I 624 W/m 18,0 km/h (3 Bft)
20.03.2014 12:28 18,1 C 16,1 C 57 % 1014,8 hPa 0,0 l/m 0 min 0 min 0,7 UV-I 195 W/m 20,6 km/h (4 Bft)
20.03.2014 12:30 17,8 C 15,6 C 57 % 1014,7 hPa 0,0 l/m 0 min 0 min 0,7 UV-I 227 W/m 20,6 km/h (4 Bft)
20.03.2014 12:32 17,6 C 15,6 C 58 % 1014,8 hPa 0,0 l/m 0 min 0 min 0,8 UV-I 323 W/m 18,0 km/h (3 Bft)
20.03.2014 12:34 17,7 C 15,6 C 58 % 1014,8 hPa 0,0 l/m 2 min 0 min 0,9 UV-I 589 W/m 23,2 km/h (4 Bft)
20.03.2014 12:36 17,9 C 16,1 C 58 % 1014,7 hPa 0,0 l/m 2 min 0 min 0,9 UV-I 519 W/m 20,6 km/h (4 Bft)
20.03.2014 12:38 18,0 C 16,1 C 57 % 1014,6 hPa 0,0 l/m 2 min 0 min 0,8 UV-I 519 W/m 23,2 km/h (4 Bft)
20.03.2014 12:40 18,0 C 16,1 C 56 % 1014,5 hPa 0,0 l/m 2 min 0 min 1,1 UV-I 410 W/m 20,6 km/h (4 Bft)
20.03.2014 12:42 18,2 C 16,1 C 56 % 1014,5 hPa 0,0 l/m 2 min 0 min 1,3 UV-I 631 W/m 18,0 km/h (3 Bft)
20.03.2014 12:44 18,5 C 16,7 C 57 % 1014,4 hPa 0,0 l/m 2 min 0 min 1,4 UV-I 636 W/m 20,6 km/h (4 Bft)
20.03.2014 12:46 18,7 C 16,7 C 56 % 1014,3 hPa 0,0 l/m 2 min 0 min 1,7 UV-I 640 W/m 15,4 km/h (3 Bft)
20.03.2014 12:48 18,8 C 16,7 C 54 % 1014,2 hPa 0,0 l/m 2 min 0 min 1,8 UV-I 636 W/m 20,6 km/h (4 Bft)
20.03.2014 12:50 19,0 C 16,7 C 55 % 1014,1 hPa 0,0 l/m 2 min 0 min 1,9 UV-I 631 W/m 15,4 km/h (3 Bft)
20.03.2014 12:52 19,3 C 17,2 C 55 % 1014,1 hPa 0,0 l/m 2 min 0 min 2,0 UV-I 635 W/m 18,0 km/h (3 Bft)
20.03.2014 12:54 19,4 C 17,2 C 53 % 1014,1 hPa 0,0 l/m 2 min 0 min 2,0 UV-I 629 W/m 18,0 km/h (3 Bft)
20.03.2014 12:56 19,6 C 17,2 C 54 % 1014,0 hPa 0,0 l/m 2 min 0 min 2,0 UV-I 626 W/m 15,4 km/h (3 Bft)
20.03.2014 12:58 19,7 C 17,2 C 54 % 1014,0 hPa 0,0 l/m 2 min 0 min 2,0 UV-I 622 W/m 12,9 km/h (3 Bft)
20.03.2014 13:00 19,7 C 17,2 C 52 % 1014,0 hPa 0,0 l/m 2 min 0 min 2,0 UV-I 617 W/m 23,2 km/h (4 Bft)
20.03.2014 13:02 19,7 C 17,2 C 52 % 1013,9 hPa 0,0 l/m 2 min 0 min 2,0 UV-I 621 W/m 20,6 km/h (4 Bft)
20.03.2014 13:06 19,7 C 17,8 C 53 % 1013,7 hPa 0,0 l/m 2 min 0 min 2,0 UV-I 621 W/m 25,7 km/h (4 Bft)
20.03.2014 13:08 19,8 C 17,8 C 53 % 1013,7 hPa 0,0 l/m 2 min 0 min 2,0 UV-I 617 W/m 20,6 km/h (4 Bft)
20.03.2014 13:10 19,8 C 17,8 C 52 % 1013,6 hPa 0,0 l/m 2 min 0 min 2,0 UV-I 617 W/m 28,3 km/h (4 Bft)
20.03.2014 13:12 19,9 C 17,8 C 52 % 1013,6 hPa 0,0 l/m 2 min 0 min 2,0 UV-I 619 W/m 18,0 km/h (3 Bft)
20.03.2014 13:14 20,1 C 17,8 C 52 % 1013,5 hPa 0,0 l/m 2 min 0 min 2,0 UV-I 615 W/m 15,4 km/h (3 Bft)
20.03.2014 13:16 20,3 C 17,8 C 52 % 1013,4 hPa 0,0 l/m 2 min 0 min 2,0 UV-I 613 W/m 7,7 km/h (2 Bft)
20.03.2014 13:18 20,4 C 17,8 C 51 % 1013,4 hPa 0,0 l/m 2 min 0 min 2,0 UV-I 613 W/m 25,7 km/h (4 Bft)
20.03.2014 13:20 20,4 C 17,8 C 51 % 1013,3 hPa 0,0 l/m 2 min 0 min 2,0 UV-I 610 W/m 15,4 km/h (3 Bft)
20.03.2014 13:22 20,6 C 18,3 C 53 % 1013,2 hPa 0,0 l/m 2 min 0 min 1,9 UV-I 610 W/m 20,6 km/h (4 Bft)
20.03.2014 13:24 20,6 C 18,3 C 51 % 1013,2 hPa 0,0 l/m 2 min 0 min 1,9 UV-I 608 W/m 18,0 km/h (3 Bft)
20.03.2014 13:26 20,7 C 18,3 C 50 % 1013,2 hPa 0,0 l/m 2 min 0 min 1,9 UV-I 606 W/m 15,4 km/h (3 Bft)
20.03.2014 13:28 20,9 C 18,3 C 51 % 1013,0 hPa 0,0 l/m 2 min 0 min 1,9 UV-I 603 W/m 15,4 km/h (3 Bft)
20.03.2014 13:30 21,0 C 18,3 C 50 % 1013,0 hPa 0,0 l/m 2 min 0 min 1,9 UV-I 603 W/m 23,2 km/h (4 Bft)
20.03.2014 13:32 20,9 C 18,3 C 48 % 1012,9 hPa 0,0 l/m 2 min 0 min 1,9 UV-I 603 W/m 23,2 km/h (4 Bft)
20.03.2014 13:34 20,8 C 18,3 C 49 % 1012,9 hPa 0,0 l/m 2 min 0 min 1,9 UV-I 601 W/m 25,7 km/h (4 Bft)
20.03.2014 13:36 20,9 C 18,3 C 50 % 1012,8 hPa 0,0 l/m 2 min 0 min 1,9 UV-I 598 W/m 20,6 km/h (4 Bft)
20.03.2014 13:38 20,9 C 18,3 C 47 % 1012,8 hPa 0,0 l/m 2 min 0 min 1,9 UV-I 598 W/m 25,7 km/h (4 Bft)
20.03.2014 13:40 20,9 C 18,3 C 49 % 1012,8 hPa 0,0 l/m 2 min 0 min 1,9 UV-I 599 W/m 20,6 km/h (4 Bft)
20.03.2014 13:42 21,0 C 18,3 C 50 % 1012,7 hPa 0,0 l/m 2 min 0 min 1,9 UV-I 598 W/m 18,0 km/h (3 Bft)
20.03.2014 13:44 21,2 C 18,3 C 49 % 1012,6 hPa 0,0 l/m 2 min 0 min 1,9 UV-I 594 W/m 10,3 km/h (2 Bft)
20.03.2014 13:46 21,3 C 18,9 C 48 % 1012,6 hPa 0,0 l/m 2 min 0 min 1,9 UV-I 596 W/m 23,2 km/h (4 Bft)
20.03.2014 13:48 21,3 C 18,9 C 48 % 1012,5 hPa 0,0 l/m 2 min 0 min 1,9 UV-I 596 W/m 25,7 km/h (4 Bft)
20.03.2014 13:50 21,3 C 18,9 C 46 % 1012,4 hPa 0,0 l/m 2 min 0 min 1,9 UV-I 594 W/m 23,2 km/h (4 Bft)
20.03.2014 13:52 21,4 C 18,9 C 43 % 1012,4 hPa 0,0 l/m 2 min 0 min 1,8 UV-I 580 W/m 20,6 km/h (4 Bft)
20.03.2014 13:54 21,6 C 18,9 C 41 % 1012,3 hPa 0,0 l/m 2 min 0 min 1,8 UV-I 591 W/m 25,7 km/h (4 Bft)
20.03.2014 13:56 21,8 C 18,9 C 40 % 1012,2 hPa 0,0 l/m 2 min 0 min 1,8 UV-I 584 W/m 25,7 km/h (4 Bft)
20.03.2014 13:58 21,9 C 19,4 C 39 % 1012,1 hPa 0,0 l/m 2 min 0 min 1,8 UV-I 584 W/m 23,2 km/h (4 Bft)
20.03.2014 14:00 22,1 C 19,4 C 37 % 1012,1 hPa 0,0 l/m 2 min 0 min 1,8 UV-I 566 W/m 30,9 km/h (5 Bft)
20.03.2014 14:02 22,0 C 19,4 C 37 % 1012,0 hPa 0,0 l/m 2 min 0 min 1,8 UV-I 587 W/m 28,3 km/h (4 Bft)
20.03.2014 14:06 22,1 C 19,4 C 40 % 1011,9 hPa 0,0 l/m 2 min 0 min 1,8 UV-I 578 W/m 28,3 km/h (4 Bft)
20.03.2014 14:08 22,3 C 19,4 C 37 % 1011,9 hPa 0,0 l/m 2 min 0 min 1,7 UV-I 577 W/m 30,9 km/h (5 Bft)
20.03.2014 14:10 22,3 C 19,4 C 36 % 1011,9 hPa 0,0 l/m 2 min 0 min 1,7 UV-I 575 W/m 30,9 km/h (5 Bft)
20.03.2014 14:12 22,2 C 19,4 C 37 % 1011,8 hPa 0,0 l/m 2 min 0 min 1,7 UV-I 573 W/m 20,6 km/h (4 Bft)
20.03.2014 14:14 22,2 C 19,4 C 37 % 1011,8 hPa 0,0 l/m 2 min 0 min 1,7 UV-I 571 W/m 33,5 km/h (5 Bft)
20.03.2014 14:16 22,3 C 19,4 C 38 % 1011,7 hPa 0,0 l/m 2 min 0 min 1,7 UV-I 568 W/m 23,2 km/h (4 Bft)
20.03.2014 14:18 22,4 C 19,4 C 37 % 1011,7 hPa 0,0 l/m 2 min 0 min 1,6 UV-I 554 W/m 18,0 km/h (3 Bft)
20.03.2014 14:20 22,4 C 19,4 C 38 % 1011,5 hPa 0,0 l/m 2 min 0 min 1,6 UV-I 566 W/m 30,9 km/h (5 Bft)
20.03.2014 14:22 22,4 C 19,4 C 37 % 1011,5 hPa 0,0 l/m 2 min 0 min 1,6 UV-I 564 W/m 46,3 km/h (6 Bft)
20.03.2014 14:24 22,4 C 19,4 C 36 % 1011,4 hPa 0,0 l/m 2 min 0 min 1,6 UV-I 559 W/m 33,5 km/h (5 Bft)
20.03.2014 14:26 22,3 C 19,4 C 36 % 1011,4 hPa 0,0 l/m 2 min 0 min 1,6 UV-I 555 W/m 28,3 km/h (4 Bft)
20.03.2014 14:28 22,3 C 19,4 C 36 % 1011,3 hPa 0,0 l/m 2 min 0 min 1,6 UV-I 555 W/m 30,9 km/h (5 Bft)
20.03.2014 14:30 22,4 C 20,0 C 37 % 1011,2 hPa 0,0 l/m 2 min 0 min 1,5 UV-I 552 W/m 20,6 km/h (4 Bft)
20.03.2014 14:32 22,4 C 20,0 C 36 % 1011,1 hPa 0,0 l/m 2 min 0 min 1,5 UV-I 550 W/m 33,5 km/h (5 Bft)
20.03.2014 14:34 22,4 C 20,0 C 36 % 1011,1 hPa 0,0 l/m 2 min 0 min 1,5 UV-I 545 W/m 28,3 km/h (4 Bft)
20.03.2014 14:36 22,3 C 20,0 C 36 % 1011,0 hPa 0,0 l/m 2 min 0 min 1,5 UV-I 545 W/m 30,9 km/h (5 Bft)
20.03.2014 14:38 22,3 C 20,0 C 36 % 1011,0 hPa 0,0 l/m 2 min 0 min 1,5 UV-I 541 W/m 51,5 km/h (7 Bft)
20.03.2014 14:40 22,3 C 20,0 C 36 % 1011,1 hPa 0,0 l/m 2 min 0 min 1,4 UV-I 538 W/m 33,5 km/h (5 Bft)
20.03.2014 14:42 22,3 C 20,0 C 37 % 1011,0 hPa 0,0 l/m 2 min 0 min 1,4 UV-I 533 W/m 33,5 km/h (5 Bft)
20.03.2014 14:44 22,3 C 20,0 C 36 % 1011,0 hPa 0,0 l/m 2 min 0 min 1,4 UV-I 531 W/m 43,8 km/h (6 Bft)
20.03.2014 14:46 22,4 C 20,0 C 37 % 1010,9 hPa 0,0 l/m 2 min 0 min 1,4 UV-I 526 W/m 23,2 km/h (4 Bft)
20.03.2014 14:48 22,6 C 20,0 C 37 % 1010,9 hPa 0,0 l/m 2 min 0 min 1,3 UV-I 522 W/m 28,3 km/h (4 Bft)
20.03.2014 14:50 22,5 C 20,0 C 36 % 1010,8 hPa 0,0 l/m 2 min 0 min 1,3 UV-I 520 W/m 33,5 km/h (5 Bft)
20.03.2014 14:52 22,4 C 20,0 C 36 % 1010,6 hPa 0,0 l/m 2 min 0 min 1,3 UV-I 517 W/m 33,5 km/h (5 Bft)
20.03.2014 14:54 22,4 C 20,6 C 37 % 1010,5 hPa 0,0 l/m 2 min 0 min 1,3 UV-I 513 W/m 38,6 km/h (5 Bft)
20.03.2014 14:56 22,4 C 20,0 C 36 % 1010,4 hPa 0,0 l/m 2 min 0 min 1,3 UV-I 510 W/m 33,5 km/h (5 Bft)
20.03.2014 14:58 22,4 C 20,0 C 36 % 1010,3 hPa 0,0 l/m 2 min 0 min 1,3 UV-I 508 W/m 30,9 km/h (5 Bft)
20.03.2014 15:00 22,4 C 20,0 C 36 % 1010,1 hPa 0,0 l/m 2 min 0 min 1,2 UV-I 504 W/m 36,0 km/h (5 Bft)
20.03.2014 15:02 22,3 C 20,0 C 35 % 1010,0 hPa 0,0 l/m 2 min 0 min 1,2 UV-I 503 W/m 38,6 km/h (5 Bft)
20.03.2014 15:06 22,3 C 20,0 C 37 % 1009,8 hPa 0,0 l/m 2 min 0 min 1,2 UV-I 497 W/m 43,8 km/h (6 Bft)
20.03.2014 15:08 22,4 C 20,0 C 37 % 1009,7 hPa 0,0 l/m 2 min 0 min 1,2 UV-I 494 W/m 28,3 km/h (4 Bft)
20.03.2014 15:10 22,4 C 20,0 C 37 % 1009,7 hPa 0,0 l/m 2 min 0 min 1,1 UV-I 490 W/m 33,5 km/h (5 Bft)
20.03.2014 15:12 22,5 C 20,0 C 38 % 1009,6 hPa 0,0 l/m 2 min 0 min 1,1 UV-I 485 W/m 20,6 km/h (4 Bft)
20.03.2014 15:14 22,6 C 20,6 C 36 % 1009,6 hPa 0,0 l/m 2 min 0 min 1,1 UV-I 483 W/m 30,9 km/h (5 Bft)
20.03.2014 15:16 22,6 C 20,0 C 38 % 1009,4 hPa 0,0 l/m 2 min 0 min 1,1 UV-I 482 W/m 20,6 km/h (4 Bft)
20.03.2014 15:18 22,6 C 20,0 C 38 % 1009,3 hPa 0,0 l/m 2 min 0 min 1,0 UV-I 476 W/m 28,3 km/h (4 Bft)
20.03.2014 15:20 22,7 C 20,0 C 39 % 1009,3 hPa 0,0 l/m 2 min 0 min 1,0 UV-I 473 W/m 30,9 km/h (5 Bft)
20.03.2014 15:22 22,7 C 20,6 C 37 % 1009,2 hPa 0,0 l/m 2 min 0 min 1,0 UV-I 468 W/m 30,9 km/h (5 Bft)
20.03.2014 15:24 22,6 C 20,0 C 36 % 1009,3 hPa 0,0 l/m 2 min 0 min 1,0 UV-I 464 W/m 43,8 km/h (6 Bft)
20.03.2014 15:26 22,4 C 20,0 C 36 % 1009,2 hPa 0,0 l/m 2 min 0 min 1,0 UV-I 459 W/m 38,6 km/h (5 Bft)
20.03.2014 15:28 22,3 C 20,0 C 37 % 1009,2 hPa 0,0 l/m 2 min 0 min 0,9 UV-I 455 W/m 30,9 km/h (5 Bft)
20.03.2014 15:30 22,4 C 20,0 C 37 % 1009,1 hPa 0,0 l/m 2 min 0 min 0,9 UV-I 452 W/m 36,0 km/h (5 Bft)
20.03.2014 15:32 22,5 C 20,0 C 37 % 1009,0 hPa 0,0 l/m 2 min 0 min 0,9 UV-I 446 W/m 33,5 km/h (5 Bft)
20.03.2014 15:34 22,6 C 20,6 C 37 % 1008,9 hPa 0,0 l/m 2 min 0 min 0,9 UV-I 443 W/m 43,8 km/h (6 Bft)
20.03.2014 15:36 22,5 C 20,6 C 37 % 1008,9 hPa 0,0 l/m 2 min 0 min 0,8 UV-I 438 W/m 28,3 km/h (4 Bft)
20.03.2014 15:38 22,4 C 20,6 C 37 % 1008,9 hPa 0,0 l/m 2 min 0 min 0,8 UV-I 434 W/m 33,5 km/h (5 Bft)
20.03.2014 15:40 22,4 C 20,6 C 36 % 1008,9 hPa 0,0 l/m 2 min 0 min 0,8 UV-I 429 W/m 36,0 km/h (5 Bft)
20.03.2014 15:42 22,3 C 20,6 C 37 % 1008,9 hPa 0,0 l/m 2 min 0 min 0,8 UV-I 425 W/m 33,5 km/h (5 Bft)
20.03.2014 15:44 22,4 C 20,0 C 37 % 1008,9 hPa 0,0 l/m 2 min 0 min 0,7 UV-I 422 W/m 36,0 km/h (5 Bft)
20.03.2014 15:46 22,4 C 20,0 C 37 % 1008,7 hPa 0,0 l/m 2 min 0 min 0,7 UV-I 415 W/m 41,2 km/h (6 Bft)
20.03.2014 15:48 22,4 C 20,0 C 37 % 1008,7 hPa 0,0 l/m 2 min 0 min 0,7 UV-I 410 W/m 43,8 km/h (6 Bft)
20.03.2014 15:50 22,4 C 20,0 C 36 % 1008,9 hPa 0,0 l/m 2 min 0 min 0,7 UV-I 406 W/m 46,3 km/h (6 Bft)
20.03.2014 15:52 22,3 C 20,0 C 36 % 1008,7 hPa 0,0 l/m 2 min 0 min 0,6 UV-I 399 W/m 38,6 km/h (5 Bft)
20.03.2014 15:54 22,3 C 20,0 C 37 % 1008,8 hPa 0,0 l/m 2 min 0 min 0,6 UV-I 396 W/m 33,5 km/h (5 Bft)
20.03.2014 15:56 22,4 C 20,0 C 36 % 1008,8 hPa 0,0 l/m 2 min 0 min 0,6 UV-I 390 W/m 43,8 km/h (6 Bft)
20.03.2014 15:58 22,4 C 20,0 C 37 % 1008,9 hPa 0,0 l/m 2 min 0 min 0,5 UV-I 385 W/m 30,9 km/h (5 Bft)
20.03.2014 16:00 22,4 C 20,0 C 38 % 1008,8 hPa 0,0 l/m 2 min 0 min 0,5 UV-I 381 W/m 30,9 km/h (5 Bft)
20.03.2014 16:02 22,4 C 20,0 C 37 % 1008,9 hPa 0,0 l/m 2 min 0 min 0,5 UV-I 376 W/m 25,7 km/h (4 Bft)
20.03.2014 16:06 22,4 C 20,0 C 38 % 1008,8 hPa 0,0 l/m 2 min 0 min 0,0 UV-I 364 W/m 36,0 km/h (5 Bft)
20.03.2014 16:08 22,5 C 20,0 C 37 % 1008,7 hPa 0,0 l/m 2 min 0 min 0,0 UV-I 362 W/m 25,7 km/h (4 Bft)
20.03.2014 16:10 22,5 C 20,0 C 37 % 1008,7 hPa 0,0 l/m 2 min 0 min 0,0 UV-I 350 W/m 25,7 km/h (4 Bft)
20.03.2014 16:12 22,5 C 20,0 C 37 % 1008,7 hPa 0,0 l/m 2 min 0 min 0,0 UV-I 346 W/m 25,7 km/h (4 Bft)
20.03.2014 16:14 22,5 C 20,0 C 36 % 1008,7 hPa 0,0 l/m 2 min 0 min 0,0 UV-I 341 W/m 23,2 km/h (4 Bft)
20.03.2014 16:16 22,6 C 20,0 C 36 % 1008,6 hPa 0,0 l/m 2 min 0 min 0,0 UV-I 334 W/m 33,5 km/h (5 Bft)
20.03.2014 16:18 22,6 C 20,0 C 37 % 1008,6 hPa 0,0 l/m 2 min 0 min 0,0 UV-I 330 W/m 30,9 km/h (5 Bft)
20.03.2014 16:20 22,6 C 19,4 C 37 % 1008,5 hPa 0,0 l/m 2 min 0 min 0,0 UV-I 325 W/m 28,3 km/h (4 Bft)
20.03.2014 16:22 22,6 C 20,0 C 37 % 1008,5 hPa 0,0 l/m 2 min 0 min 0,0 UV-I 323 W/m 25,7 km/h (4 Bft)
20.03.2014 16:24 22,6 C 19,4 C 38 % 1008,4 hPa 0,0 l/m 2 min 0 min 0,0 UV-I 316 W/m 18,0 km/h (3 Bft)
20.03.2014 16:26 22,6 C 19,4 C 37 % 1008,4 hPa 0,0 l/m 2 min 0 min 0,0 UV-I 315 W/m 30,9 km/h (5 Bft)
20.03.2014 16:28 22,6 C 19,4 C 38 % 1008,4 hPa 0,0 l/m 2 min 0 min 0,0 UV-I 308 W/m 28,3 km/h (4 Bft)
20.03.2014 16:30 22,6 C 19,4 C 38 % 1008,4 hPa 0,0 l/m 2 min 0 min 0,0 UV-I 308 W/m 28,3 km/h (4 Bft)
20.03.2014 16:32 22,6 C 19,4 C 37 % 1008,5 hPa 0,0 l/m 2 min 0 min 0,0 UV-I 302 W/m 23,2 km/h (4 Bft)
20.03.2014 16:34 22,6 C 19,4 C 39 % 1008,5 hPa 0,0 l/m 2 min 0 min 0,0 UV-I 297 W/m 41,2 km/h (6 Bft)
20.03.2014 16:36 22,7 C 20,0 C 37 % 1008,5 hPa 0,0 l/m 2 min 0 min 0,0 UV-I 295 W/m 41,2 km/h (6 Bft)
20.03.2014 16:38 22,7 C 20,0 C 38 % 1008,5 hPa 0,0 l/m 2 min 0 min 0,0 UV-I 290 W/m 15,4 km/h (3 Bft)
20.03.2014 16:40 22,8 C 20,0 C 37 % 1008,6 hPa 0,0 l/m 2 min 0 min 0,0 UV-I 287 W/m 15,4 km/h (3 Bft)
20.03.2014 16:42 22,9 C 19,4 C 36 % 1008,5 hPa 0,0 l/m 2 min 0 min 0,0 UV-I 283 W/m 33,5 km/h (5 Bft)
20.03.2014 16:44 22,8 C 20,0 C 37 % 1008,5 hPa 0,0 l/m 2 min 0 min 0,0 UV-I 278 W/m 23,2 km/h (4 Bft)
20.03.2014 16:46 22,8 C 20,0 C 37 % 1008,4 hPa 0,0 l/m 2 min 0 min 0,0 UV-I 269 W/m 18,0 km/h (3 Bft)
20.03.2014 16:48 22,7 C 20,0 C 36 % 1008,4 hPa 0,0 l/m 2 min 0 min 0,0 UV-I 265 W/m 20,6 km/h (4 Bft)
20.03.2014 16:50 22,6 C 20,0 C 37 % 1008,4 hPa 0,0 l/m 2 min 0 min 0,0 UV-I 260 W/m 18,0 km/h (3 Bft)
20.03.2014 16:52 22,5 C 19,4 C 37 % 1008,4 hPa 0,0 l/m 2 min 0 min 0,0 UV-I 255 W/m 20,6 km/h (4 Bft)
20.03.2014 16:54 22,4 C 19,4 C 37 % 1008,4 hPa 0,0 l/m 2 min 0 min 0,0 UV-I 250 W/m 36,0 km/h (5 Bft)
20.03.2014 16:56 22,2 C 19,4 C 37 % 1008,4 hPa 0,0 l/m 2 min 0 min 0,0 UV-I 244 W/m 28,3 km/h (4 Bft)
20.03.2014 16:58 22,1 C 19,4 C 37 % 1008,3 hPa 0,0 l/m 2 min 0 min 0,0 UV-I 241 W/m 25,7 km/h (4 Bft)
20.03.2014 17:00 22,1 C 19,4 C 37 % 1008,4 hPa 0,0 l/m 2 min 0 min 0,0 UV-I 237 W/m 25,7 km/h (4 Bft)
20.03.2014 17:02 22,0 C 19,4 C 38 % 1008,3 hPa 0,0 l/m 2 min 0 min 0,0 UV-I 232 W/m 25,7 km/h (4 Bft)
20.03.2014 17:05 21,9 C 18,9 C 38 % 1008,2 hPa 0,0 l/m 2 min 0 min 0,0 UV-I 236 W/m 25,7 km/h (4 Bft)
20.03.2014 17:10 21,9 C 18,9 C 38 % 1008,2 hPa 0,0 l/m 2 min 0 min 0,0 UV-I 211 W/m 23,2 km/h (4 Bft)
20.03.2014 17:12 21,9 C 18,9 C 38 % 1008,2 hPa 0,0 l/m 2 min 0 min 0,0 UV-I 206 W/m 30,9 km/h (5 Bft)
20.03.2014 17:14 21,8 C 18,9 C 38 % 1008,2 hPa 0,0 l/m 2 min 0 min 0,0 UV-I 179 W/m 25,7 km/h (4 Bft)
20.03.2014 17:16 21,8 C 18,9 C 38 % 1008,2 hPa 0,0 l/m 2 min 0 min 0,0 UV-I 172 W/m 25,7 km/h (4 Bft)
20.03.2014 17:18 21,8 C 18,9 C 39 % 1008,2 hPa 0,0 l/m 2 min 0 min 0,0 UV-I 186 W/m 15,4 km/h (3 Bft)
20.03.2014 17:20 21,8 C 18,9 C 40 % 1008,1 hPa 0,0 l/m 2 min 0 min 0,0 UV-I 171 W/m 10,3 km/h (2 Bft)
20.03.2014 17:22 21,7 C 18,9 C 38 % 1008,2 hPa 0,0 l/m 2 min 0 min 0,0 UV-I 169 W/m 20,6 km/h (4 Bft)
20.03.2014 17:24 21,7 C 18,3 C 39 % 1008,1 hPa 0,0 l/m 2 min 0 min 0,0 UV-I 162 W/m 10,3 km/h (2 Bft)
20.03.2014 17:26 21,6 C 18,3 C 38 % 1008,1 hPa 0,0 l/m 2 min 0 min 0,0 UV-I 162 W/m 28,3 km/h (4 Bft)
20.03.2014 17:28 21,6 C 18,3 C 39 % 1008,1 hPa 0,0 l/m 2 min 0 min 0,0 UV-I 148 W/m 15,4 km/h (3 Bft)
20.03.2014 17:30 21,4 C 18,3 C 39 % 1008,1 hPa 0,0 l/m 2 min 0 min 0,0 UV-I 142 W/m 20,6 km/h (4 Bft)
20.03.2014 17:32 21,4 C 18,3 C 39 % 1008,0 hPa 0,0 l/m 2 min 0 min 0,0 UV-I 105 W/m 23,2 km/h (4 Bft)
20.03.2014 17:34 21,3 C 18,3 C 39 % 1008,1 hPa 0,0 l/m 2 min 0 min 0,0 UV-I 105 W/m 30,9 km/h (5 Bft)
20.03.2014 17:36 21,2 C 18,3 C 39 % 1008,0 hPa 0,0 l/m 2 min 0 min 0,0 UV-I 104 W/m 18,0 km/h (3 Bft)
20.03.2014 17:38 21,1 C 18,3 C 39 % 1008,0 hPa 0,0 l/m 0 min 0 min 0,0 UV-I 81 W/m 15,4 km/h (3 Bft)
20.03.2014 17:40 21,0 C 17,8 C 39 % 1008,0 hPa 0,0 l/m 0 min 0 min 0,0 UV-I 54 W/m 23,2 km/h (4 Bft)
20.03.2014 17:42 20,9 C 17,8 C 39 % 1008,0 hPa 0,0 l/m 0 min 0 min 0,0 UV-I 56 W/m 25,7 km/h (4 Bft)
20.03.2014 17:44 20,8 C 17,8 C 40 % 1008,1 hPa 0,0 l/m 0 min 0 min 0,0 UV-I 58 W/m 15,4 km/h (3 Bft)
20.03.2014 17:46 20,8 C 17,8 C 40 % 1008,0 hPa 0,0 l/m 0 min 0 min 0,0 UV-I 51 W/m 28,3 km/h (4 Bft)
20.03.2014 17:48 20,7 C 17,8 C 40 % 1008,1 hPa 0,0 l/m 0 min 0 min 0,0 UV-I 51 W/m 18,0 km/h (3 Bft)
20.03.2014 17:50 20,7 C 17,8 C 40 % 1008,1 hPa 0,0 l/m 0 min 0 min 0,0 UV-I 47 W/m 18,0 km/h (3 Bft)
20.03.2014 17:52 20,6 C 17,8 C 41 % 1008,1 hPa 0,0 l/m 0 min 0 min 0,0 UV-I 46 W/m 20,6 km/h (4 Bft)
20.03.2014 17:54 20,5 C 17,8 C 41 % 1008,1 hPa 0,0 l/m 0 min 0 min 0,0 UV-I 42 W/m 20,6 km/h (4 Bft)
20.03.2014 17:56 20,4 C 17,8 C 41 % 1008,1 hPa 0,0 l/m 0 min 0 min 0,0 UV-I 40 W/m 12,9 km/h (3 Bft)
20.03.2014 17:58 20,3 C 17,8 C 41 % 1008,1 hPa 0,0 l/m 0 min 0 min 0,0 UV-I 46 W/m 15,4 km/h (3 Bft)
20.03.2014 18:00 20,3 C 17,2 C 42 % 1008,1 hPa 0,0 l/m 0 min 0 min 0,0 UV-I 47 W/m 25,7 km/h (4 Bft)
20.03.2014 18:02 20,3 C 17,2 C 42 % 1008,1 hPa 0,0 l/m 0 min 0 min 0,0 UV-I 44 W/m 15,4 km/h (3 Bft)
20.03.2014 18:06 20,2 C 17,2 C 42 % 1008,1 hPa 0,0 l/m 0 min 0 min 0,0 UV-I 40 W/m 18,0 km/h (3 Bft)
20.03.2014 18:08 20,1 C 17,2 C 42 % 1008,1 hPa 0,0 l/m 0 min 0 min 0,0 UV-I 42 W/m 23,2 km/h (4 Bft)
20.03.2014 18:10 20,1 C 17,2 C 43 % 1008,1 hPa 0,0 l/m 0 min 0 min 0,0 UV-I 40 W/m 15,4 km/h (3 Bft)
20.03.2014 18:12 20,0 C 17,2 C 43 % 1008,1 hPa 0,0 l/m 0 min 0 min 0,0 UV-I 33 W/m 18,0 km/h (3 Bft)
20.03.2014 18:14 19,9 C 16,7 C 43 % 1008,1 hPa 0,0 l/m 0 min 0 min 0,0 UV-I 30 W/m 10,3 km/h (2 Bft)
20.03.2014 18:16 19,9 C 16,7 C 43 % 1008,1 hPa 0,0 l/m 0 min 0 min 0,0 UV-I 33 W/m 15,4 km/h (3 Bft)
20.03.2014 18:18 19,9 C 16,7 C 43 % 1008,1 hPa 0,0 l/m 0 min 0 min 0,0 UV-I 28 W/m 18,0 km/h (3 Bft)
20.03.2014 18:20 19,8 C 16,7 C 43 % 1008,1 hPa 0,0 l/m 0 min 0 min 0,0 UV-I 26 W/m 15,4 km/h (3 Bft)
20.03.2014 18:22 19,7 C 16,7 C 44 % 1008,1 hPa 0,0 l/m 0 min 0 min 0,0 UV-I 23 W/m 10,3 km/h (2 Bft)
20.03.2014 18:24 19,7 C 16,7 C 44 % 1008,0 hPa 0,0 l/m 0 min 0 min 0,0 UV-I 19 W/m 0,0 km/h (0 Bft)
20.03.2014 18:26 19,6 C 16,7 C 44 % 1008,1 hPa 0,0 l/m 0 min 0 min 0,0 UV-I 18 W/m 18,0 km/h (3 Bft)
20.03.2014 18:28 19,6 C 16,7 C 44 % 1008,1 hPa 0,0 l/m 0 min 0 min 0,0 UV-I 16 W/m 10,3 km/h (2 Bft)
20.03.2014 18:30 19,4 C 16,1 C 45 % 1008,0 hPa 0,0 l/m 0 min 0 min 0,0 UV-I 14 W/m 15,4 km/h (3 Bft)
20.03.2014 18:32 19,4 C 16,1 C 45 % 1008,1 hPa 0,0 l/m 0 min 0 min 0,0 UV-I 12 W/m 15,4 km/h (3 Bft)
20.03.2014 18:34 19,3 C 16,1 C 45 % 1008,1 hPa 0,0 l/m 0 min 0 min 0,0 UV-I 11 W/m 20,6 km/h (4 Bft)
20.03.2014 18:36 19,2 C 16,1 C 45 % 1008,0 hPa 0,0 l/m 0 min 0 min 0,0 UV-I 9 W/m 10,3 km/h (2 Bft)
20.03.2014 18:38 19,2 C 16,1 C 45 % 1008,1 hPa 0,0 l/m 0 min 0 min 0,0 UV-I 7 W/m 15,4 km/h (3 Bft)
20.03.2014 18:40 19,2 C 16,1 C 46 % 1008,1 hPa 0,0 l/m 0 min 0 min 0,0 UV-I 7 W/m 5,1 km/h (1 Bft)
20.03.2014 18:42 19,1 C 16,1 C 46 % 1008,1 hPa 0,0 l/m 0 min 0 min 0,0 UV-I 5 W/m 2,6 km/h (1 Bft)
20.03.2014 18:44 18,9 C 15,6 C 46 % 1008,3 hPa 0,0 l/m 0 min 0 min 0,0 UV-I 0 W/m 15,4 km/h (3 Bft)
20.03.2014 18:46 18,9 C 15,6 C 46 % 1008,2 hPa 0,0 l/m 0 min 0 min 0,0 UV-I 0 W/m 20,6 km/h (4 Bft)
20.03.2014 18:48 18,8 C 15,6 C 46 % 1008,1 hPa 0,0 l/m 0 min 0 min 0,0 UV-I 0 W/m 2,6 km/h (1 Bft)
20.03.2014 18:50 18,7 C 15,6 C 47 % 1008,1 hPa 0,0 l/m 0 min 0 min 0,0 UV-I 0 W/m 10,3 km/h (2 Bft)
20.03.2014 18:52 18,7 C 15,6 C 47 % 1008,1 hPa 0,0 l/m 0 min 0 min 0,0 UV-I 0 W/m 7,7 km/h (2 Bft)
20.03.2014 18:54 18,6 C 15,6 C 47 % 1008,1 hPa 0,0 l/m 0 min 0 min 0,0 UV-I 0 W/m 10,3 km/h (2 Bft)
20.03.2014 18:56 18,5 C 15,6 C 47 % 1008,1 hPa 0,0 l/m 0 min 0 min 0,0 UV-I 0 W/m 10,3 km/h (2 Bft)
20.03.2014 18:58 18,4 C 15,0 C 48 % 1008,0 hPa 0,0 l/m 0 min 0 min 0,0 UV-I 0 W/m 12,9 km/h (3 Bft)
20.03.2014 19:00 18,4 C 15,0 C 47 % 1008,1 hPa 0,0 l/m 0 min 0 min 0,0 UV-I 0 W/m 12,9 km/h (3 Bft)
20.03.2014 19:02 18,4 C 15,6 C 47 % 1008,1 hPa 0,0 l/m 0 min 0 min 0,0 UV-I 0 W/m 18,0 km/h (3 Bft)
20.03.2014 19:06 18,4 C 15,6 C 47 % 1008,1 hPa 0,0 l/m 0 min 0 min 0,0 UV-I 0 W/m 18,0 km/h (3 Bft)
20.03.2014 19:08 18,4 C 15,6 C 47 % 1008,1 hPa 0,0 l/m 0 min 0 min 0,0 UV-I 0 W/m 7,7 km/h (2 Bft)
20.03.2014 19:10 18,4 C 15,0 C 47 % 1008,0 hPa 0,0 l/m 0 min 0 min 0,0 UV-I 0 W/m 10,3 km/h (2 Bft)
20.03.2014 19:12 18,3 C 15,0 C 47 % 1008,1 hPa 0,0 l/m 0 min 0 min 0,0 UV-I 0 W/m 12,9 km/h (3 Bft)
20.03.2014 19:14 18,3 C 15,0 C 46 % 1008,1 hPa 0,0 l/m 0 min 0 min 0,0 UV-I 0 W/m 18,0 km/h (3 Bft)
20.03.2014 19:16 18,3 C 15,0 C 47 % 1008,1 hPa 0,0 l/m 0 min 0 min 0,0 UV-I 0 W/m 15,4 km/h (3 Bft)
20.03.2014 19:18 18,3 C 15,6 C 47 % 1008,1 hPa 0,0 l/m 0 min 0 min 0,0 UV-I 0 W/m 12,9 km/h (3 Bft)
20.03.2014 19:20 18,3 C 15,6 C 47 % 1008,1 hPa 0,0 l/m 0 min 0 min 0,0 UV-I 0 W/m 10,3 km/h (2 Bft)
20.03.2014 19:22 18,3 C 15,0 C 47 % 1008,1 hPa 0,0 l/m 0 min 0 min 0,0 UV-I 0 W/m 12,9 km/h (3 Bft)
20.03.2014 19:24 18,2 C 15,0 C 47 % 1008,0 hPa 0,0 l/m 0 min 0 min 0,0 UV-I 0 W/m 10,3 km/h (2 Bft)
20.03.2014 19:26 18,2 C 15,0 C 47 % 1008,0 hPa 0,0 l/m 0 min 0 min 0,0 UV-I 0 W/m 10,3 km/h (2 Bft)
20.03.2014 19:28 18,1 C 15,0 C 47 % 1008,0 hPa 0,0 l/m 0 min 0 min 0,0 UV-I 0 W/m 10,3 km/h (2 Bft)
20.03.2014 19:30 18,0 C 15,0 C 47 % 1008,1 hPa 0,0 l/m 0 min 0 min 0,0 UV-I 0 W/m 5,1 km/h (1 Bft)
20.03.2014 19:32 17,9 C 15,0 C 47 % 1008,0 hPa 0,0 l/m 0 min 0 min 0,0 UV-I 0 W/m 12,9 km/h (3 Bft)
20.03.2014 19:34 17,8 C 15,0 C 47 % 1008,0 hPa 0,0 l/m 0 min 0 min 0,0 UV-I 0 W/m 10,3 km/h (2 Bft)
20.03.2014 19:36 17,8 C 15,0 C 48 % 1008,0 hPa 0,0 l/m 0 min 0 min 0,0 UV-I 0 W/m 2,6 km/h (1 Bft)
20.03.2014 19:38 17,7 C 15,0 C 48 % 1008,0 hPa 0,0 l/m 0 min 0 min 0,0 UV-I 0 W/m 12,9 km/h (3 Bft)
20.03.2014 19:40 17,7 C 14,4 C 48 % 1008,0 hPa 0,0 l/m 0 min 0 min 0,0 UV-I 0 W/m 2,6 km/h (1 Bft)
20.03.2014 19:42 17,6 C 14,4 C 48 % 1007,9 hPa 0,0 l/m 0 min 0 min 0,0 UV-I 0 W/m 0,0 km/h (0 Bft)
20.03.2014 19:44 17,4 C 13,9 C 49 % 1007,9 hPa 0,0 l/m 0 min 0 min 0,0 UV-I 0 W/m 2,6 km/h (1 Bft)
20.03.2014 19:46 17,3 C 13,9 C 48 % 1007,9 hPa 0,0 l/m 0 min 0 min 0,0 UV-I 0 W/m 7,7 km/h (2 Bft)
20.03.2014 19:48 17,2 C 13,9 C 49 % 1007,9 hPa 0,0 l/m 0 min 0 min 0,0 UV-I 0 W/m 2,6 km/h (1 Bft)
20.03.2014 19:50 17,2 C 13,9 C 49 % 1007,9 hPa 0,0 l/m 0 min 0 min 0,0 UV-I 0 W/m 0,0 km/h (0 Bft)
20.03.2014 19:52 17,2 C 13,9 C 48 % 1008,0 hPa 0,0 l/m 0 min 0 min 0,0 UV-I 0 W/m 12,9 km/h (3 Bft)
20.03.2014 19:54 17,3 C 14,4 C 48 % 1008,0 hPa 0,0 l/m 0 min 0 min 0,0 UV-I 0 W/m 12,9 km/h (3 Bft)
20.03.2014 19:56 17,3 C 14,4 C 48 % 1008,0 hPa 0,0 l/m 0 min 0 min 0,0 UV-I 0 W/m 7,7 km/h (2 Bft)
20.03.2014 19:58 17,3 C 14,4 C 48 % 1008,1 hPa 0,0 l/m 0 min 0 min 0,0 UV-I 0 W/m 7,7 km/h (2 Bft)
20.03.2014 20:00 17,3 C 14,4 C 48 % 1008,1 hPa 0,0 l/m 0 min 0 min 0,0 UV-I 0 W/m 15,4 km/h (3 Bft)
20.03.2014 20:02 17,3 C 14,4 C 48 % 1008,1 hPa 0,0 l/m 0 min 0 min 0,0 UV-I 0 W/m 15,4 km/h (3 Bft)
20.03.2014 20:06 17,2 C 14,4 C 48 % 1008,2 hPa 0,0 l/m 0 min 0 min 0,0 UV-I 0 W/m 7,7 km/h (2 Bft)
20.03.2014 20:08 17,2 C 14,4 C 48 % 1008,3 hPa 0,0 l/m 0 min 0 min 0,0 UV-I 0 W/m 5,1 km/h (1 Bft)
20.03.2014 20:10 17,1 C 13,9 C 49 % 1008,2 hPa 0,0 l/m 0 min 0 min 0,0 UV-I 0 W/m 0,0 km/h (0 Bft)
20.03.2014 20:12 17,1 C 13,9 C 49 % 1008,2 hPa 0,0 l/m 0 min 0 min 0,0 UV-I 0 W/m 0,0 km/h (0 Bft)
20.03.2014 20:14 16,9 C 13,9 C 49 % 1008,2 hPa 0,0 l/m 0 min 0 min 0,0 UV-I 0 W/m 2,6 km/h (1 Bft)
20.03.2014 20:16 16,9 C 13,9 C 49 % 1008,3 hPa 0,0 l/m 0 min 0 min 0,0 UV-I 0 W/m 10,3 km/h (2 Bft)
20.03.2014 20:18 16,8 C 13,9 C 50 % 1008,2 hPa 0,0 l/m 0 min 0 min 0,0 UV-I 0 W/m 2,6 km/h (1 Bft)
20.03.2014 20:20 16,8 C 13,9 C 49 % 1008,2 hPa 0,0 l/m 0 min 0 min 0,0 UV-I 0 W/m 2,6 km/h (1 Bft)
20.03.2014 20:22 16,7 C 13,9 C 50 % 1008,1 hPa 0,0 l/m 0 min 0 min 0,0 UV-I 0 W/m 2,6 km/h (1 Bft)
20.03.2014 20:24 16,7 C 13,3 C 50 % 1008,2 hPa 0,0 l/m 0 min 0 min 0,0 UV-I 0 W/m 0,0 km/h (0 Bft)
20.03.2014 20:26 16,6 C 13,3 C 50 % 1008,2 hPa 0,0 l/m 0 min 0 min 0,0 UV-I 0 W/m 2,6 km/h (1 Bft)
20.03.2014 20:28 16,5 C 13,3 C 50 % 1008,1 hPa 0,0 l/m 0 min 0 min 0,0 UV-I 0 W/m 2,6 km/h (1 Bft)
20.03.2014 20:30 16,4 C 13,3 C 51 % 1008,1 hPa 0,0 l/m 0 min 0 min 0,0 UV-I 0 W/m 0,0 km/h (0 Bft)
20.03.2014 20:32 16,4 C 13,3 C 51 % 1008,1 hPa 0,0 l/m 0 min 0 min 0,0 UV-I 0 W/m 12,9 km/h (3 Bft)
20.03.2014 20:34 16,4 C 13,3 C 51 % 1008,1 hPa 0,0 l/m 0 min 0 min 0,0 UV-I 0 W/m 2,6 km/h (1 Bft)
20.03.2014 20:36 16,4 C 12,8 C 51 % 1008,1 hPa 0,0 l/m 0 min 0 min 0,0 UV-I 0 W/m 2,6 km/h (1 Bft)
20.03.2014 20:38 16,3 C 12,8 C 51 % 1008,1 hPa 0,0 l/m 0 min 0 min 0,0 UV-I 0 W/m 2,6 km/h (1 Bft)
20.03.2014 20:40 16,2 C 12,8 C 52 % 1008,0 hPa 0,0 l/m 0 min 0 min 0,0 UV-I 0 W/m 0,0 km/h (0 Bft)
20.03.2014 20:42 16,1 C 12,8 C 52 % 1008,1 hPa 0,0 l/m 0 min 0 min 0,0 UV-I 0 W/m 2,6 km/h (1 Bft)
20.03.2014 20:44 16,0 C 12,8 C 52 % 1008,1 hPa 0,0 l/m 0 min 0 min 0,0 UV-I 0 W/m 0,0 km/h (0 Bft)
20.03.2014 20:46 15,9 C 12,2 C 52 % 1008,0 hPa 0,0 l/m 0 min 0 min 0,0 UV-I 0 W/m 0,0 km/h (0 Bft)
20.03.2014 20:48 15,8 C 12,2 C 53 % 1008,0 hPa 0,0 l/m 0 min 0 min 0,0 UV-I 0 W/m 7,7 km/h (2 Bft)
20.03.2014 20:50 15,7 C 12,2 C 53 % 1008,1 hPa 0,0 l/m 0 min 0 min 0,0 UV-I 0 W/m 10,3 km/h (2 Bft)
20.03.2014 20:52 15,6 C 12,2 C 54 % 1008,1 hPa 0,0 l/m 0 min 0 min 0,0 UV-I 0 W/m 2,6 km/h (1 Bft)
20.03.2014 20:54 15,5 C 12,2 C 54 % 1008,1 hPa 0,0 l/m 0 min 0 min 0,0 UV-I 0 W/m 0,0 km/h (0 Bft)
20.03.2014 20:56 15,5 C 12,2 C 54 % 1008,1 hPa 0,0 l/m 0 min 0 min 0,0 UV-I 0 W/m 0,0 km/h (0 Bft)
20.03.2014 20:58 15,4 C 12,2 C 54 % 1008,1 hPa 0,0 l/m 0 min 0 min 0,0 UV-I 0 W/m 0,0 km/h (0 Bft)
20.03.2014 21:00 15,3 C 12,2 C 54 % 1008,1 hPa 0,0 l/m 0 min 0 min 0,0 UV-I 0 W/m 5,1 km/h (1 Bft)
20.03.2014 21:02 15,3 C 12,2 C 55 % 1008,1 hPa 0,0 l/m 0 min 0 min 0,0 UV-I 0 W/m 7,7 km/h (2 Bft)
20.03.2014 21:06 15,3 C 12,2 C 55 % 1008,1 hPa 0,0 l/m 0 min 0 min 0,0 UV-I 0 W/m 7,7 km/h (2 Bft)
20.03.2014 21:08 15,3 C 12,2 C 55 % 1008,1 hPa 0,0 l/m 0 min 0 min 0,0 UV-I 0 W/m 2,6 km/h (1 Bft)
20.03.2014 21:10 15,3 C 12,2 C 55 % 1008,2 hPa 0,0 l/m 0 min 0 min 0,0 UV-I 0 W/m 7,7 km/h (2 Bft)
20.03.2014 21:12 15,3 C 12,2 C 55 % 1008,2 hPa 0,0 l/m 0 min 0 min 0,0 UV-I 0 W/m 15,4 km/h (3 Bft)
20.03.2014 21:14 15,3 C 12,8 C 55 % 1008,2 hPa 0,0 l/m 0 min 0 min 0,0 UV-I 0 W/m 12,9 km/h (3 Bft)
20.03.2014 21:16 15,4 C 12,2 C 55 % 1008,1 hPa 0,0 l/m 0 min 0 min 0,0 UV-I 0 W/m 5,1 km/h (1 Bft)
20.03.2014 21:18 15,3 C 12,2 C 55 % 1008,1 hPa 0,0 l/m 0 min 0 min 0,0 UV-I 0 W/m 10,3 km/h (2 Bft)
20.03.2014 21:20 15,3 C 12,2 C 55 % 1008,2 hPa 0,0 l/m 0 min 0 min 0,0 UV-I 0 W/m 2,6 km/h (1 Bft)
20.03.2014 21:22 15,2 C 12,2 C 55 % 1008,2 hPa 0,0 l/m 0 min 0 min 0,0 UV-I 0 W/m 0,0 km/h (0 Bft)
20.03.2014 21:24 15,2 C 12,2 C 55 % 1008,1 hPa 0,0 l/m 0 min 0 min 0,0 UV-I 0 W/m 0,0 km/h (0 Bft)
20.03.2014 21:26 15,2 C 12,2 C 55 % 1008,2 hPa 0,0 l/m 0 min 0 min 0,0 UV-I 0 W/m 0,0 km/h (0 Bft)
20.03.2014 21:28 15,1 C 11,7 C 55 % 1008,2 hPa 0,0 l/m 0 min 0 min 0,0 UV-I 0 W/m 0,0 km/h (0 Bft)
20.03.2014 21:30 15,1 C 11,7 C 56 % 1008,2 hPa 0,0 l/m 0 min 0 min 0,0 UV-I 0 W/m 5,1 km/h (1 Bft)
20.03.2014 21:32 15,0 C 11,7 C 56 % 1008,1 hPa 0,0 l/m 0 min 0 min 0,0 UV-I 0 W/m 5,1 km/h (1 Bft)
20.03.2014 21:34 15,0 C 11,7 C 56 % 1008,2 hPa 0,0 l/m 0 min 0 min 0,0 UV-I 0 W/m 0,0 km/h (0 Bft)
20.03.2014 21:36 15,0 C 12,2 C 56 % 1008,1 hPa 0,0 l/m 0 min 0 min 0,0 UV-I 0 W/m 2,6 km/h (1 Bft)
20.03.2014 21:38 14,9 C 12,2 C 56 % 1008,1 hPa 0,0 l/m 0 min 0 min 0,0 UV-I 0 W/m 0,0 km/h (0 Bft)
20.03.2014 21:40 14,9 C 12,2 C 56 % 1008,1 hPa 0,0 l/m 0 min 0 min 0,0 UV-I 0 W/m 10,3 km/h (2 Bft)
20.03.2014 21:42 14,9 C 11,7 C 56 % 1008,1 hPa 0,0 l/m 0 min 0 min 0,0 UV-I 0 W/m 2,6 km/h (1 Bft)
20.03.2014 21:44 14,9 C 11,7 C 56 % 1008,0 hPa 0,0 l/m 0 min 0 min 0,0 UV-I 0 W/m 7,7 km/h (2 Bft)
20.03.2014 21:46 14,9 C 11,7 C 56 % 1008,1 hPa 0,0 l/m 0 min 0 min 0,0 UV-I 0 W/m 7,7 km/h (2 Bft)
20.03.2014 21:48 14,9 C 12,2 C 56 % 1008,1 hPa 0,0 l/m 0 min 0 min 0,0 UV-I 0 W/m 0,0 km/h (0 Bft)
20.03.2014 21:50 14,9 C 11,7 C 56 % 1008,1 hPa 0,0 l/m 0 min 0 min 0,0 UV-I 0 W/m 5,1 km/h (1 Bft)
20.03.2014 21:52 14,9 C 11,7 C 56 % 1008,0 hPa 0,0 l/m 0 min 0 min 0,0 UV-I 0 W/m 10,3 km/h (2 Bft)
20.03.2014 21:54 15,0 C 12,2 C 56 % 1008,0 hPa 0,0 l/m 0 min 0 min 0,0 UV-I 0 W/m 5,1 km/h (1 Bft)
20.03.2014 21:56 15,0 C 12,2 C 56 % 1008,1 hPa 0,0 l/m 0 min 0 min 0,0 UV-I 0 W/m 0,0 km/h (0 Bft)
20.03.2014 21:58 14,9 C 12,2 C 56 % 1008,0 hPa 0,0 l/m 0 min 0 min 0,0 UV-I 0 W/m 2,6 km/h (1 Bft)
20.03.2014 22:00 14,9 C 12,2 C 56 % 1008,0 hPa 0,0 l/m 0 min 0 min 0,0 UV-I 0 W/m 7,7 km/h (2 Bft)
20.03.2014 22:02 14,8 C 11,7 C 56 % 1008,0 hPa 0,0 l/m 0 min 0 min 0,0 UV-I 0 W/m 5,1 km/h (1 Bft)
20.03.2014 22:06 14,7 C 11,7 C 57 % 1008,0 hPa 0,0 l/m 0 min 0 min 0,0 UV-I 0 W/m 2,6 km/h (1 Bft)
20.03.2014 22:08 14,6 C 11,7 C 57 % 1007,9 hPa 0,0 l/m 0 min 0 min 0,0 UV-I 0 W/m 0,0 km/h (0 Bft)
20.03.2014 22:10 14,6 C 11,7 C 57 % 1007,8 hPa 0,0 l/m 0 min 0 min 0,0 UV-I 0 W/m 0,0 km/h (0 Bft)
20.03.2014 22:12 14,6 C 11,1 C 57 % 1007,8 hPa 0,0 l/m 0 min 0 min 0,0 UV-I 0 W/m 0,0 km/h (0 Bft)
20.03.2014 22:14 14,5 C 11,1 C 57 % 1007,8 hPa 0,0 l/m 0 min 0 min 0,0 UV-I 0 W/m 0,0 km/h (0 Bft)
20.03.2014 22:16 14,5 C 11,1 C 58 % 1007,8 hPa 0,0 l/m 0 min 0 min 0,0 UV-I 0 W/m 5,1 km/h (1 Bft)
20.03.2014 22:18 14,4 C 11,1 C 58 % 1007,8 hPa 0,0 l/m 0 min 0 min 0,0 UV-I 0 W/m 0,0 km/h (0 Bft)
20.03.2014 22:20 14,4 C 11,1 C 58 % 1007,8 hPa 0,0 l/m 0 min 0 min 0,0 UV-I 0 W/m 2,6 km/h (1 Bft)
20.03.2014 22:22 14,3 C 11,1 C 58 % 1007,7 hPa 0,0 l/m 0 min 0 min 0,0 UV-I 0 W/m 0,0 km/h (0 Bft)
20.03.2014 22:24 14,3 C 11,1 C 58 % 1007,7 hPa 0,0 l/m 0 min 0 min 0,0 UV-I 0 W/m 15,4 km/h (3 Bft)
20.03.2014 22:26 14,3 C 11,1 C 58 % 1007,7 hPa 0,0 l/m 0 min 0 min 0,0 UV-I 0 W/m 0,0 km/h (0 Bft)
20.03.2014 22:28 14,3 C 11,1 C 58 % 1007,7 hPa 0,0 l/m 0 min 0 min 0,0 UV-I 0 W/m 5,1 km/h (1 Bft)
20.03.2014 22:30 14,3 C 11,1 C 58 % 1007,6 hPa 0,0 l/m 0 min 0 min 0,0 UV-I 0 W/m 0,0 km/h (0 Bft)
20.03.2014 22:32 14,3 C 11,1 C 58 % 1007,6 hPa 0,0 l/m 0 min 0 min 0,0 UV-I 0 W/m 2,6 km/h (1 Bft)
20.03.2014 22:34 14,3 C 11,1 C 59 % 1007,7 hPa 0,0 l/m 0 min 0 min 0,0 UV-I 0 W/m 2,6 km/h (1 Bft)
20.03.2014 22:36 14,2 C 11,1 C 59 % 1007,6 hPa 0,0 l/m 0 min 0 min 0,0 UV-I 0 W/m 2,6 km/h (1 Bft)
20.03.2014 22:38 14,2 C 11,1 C 59 % 1007,6 hPa 0,0 l/m 0 min 0 min 0,0 UV-I 0 W/m 0,0 km/h (0 Bft)
20.03.2014 22:40 14,2 C 11,1 C 59 % 1007,6 hPa 0,0 l/m 0 min 0 min 0,0 UV-I 0 W/m 5,1 km/h (1 Bft)
20.03.2014 22:42 14,2 C 11,1 C 59 % 1007,5 hPa 0,0 l/m 0 min 0 min 0,0 UV-I 0 W/m 7,7 km/h (2 Bft)
20.03.2014 22:44 14,2 C 11,1 C 60 % 1007,6 hPa 0,0 l/m 0 min 0 min 0,0 UV-I 0 W/m 0,0 km/h (0 Bft)
20.03.2014 22:46 14,2 C 11,1 C 59 % 1007,6 hPa 0,0 l/m 0 min 0 min 0,0 UV-I 0 W/m 0,0 km/h (0 Bft)
20.03.2014 22:48 14,2 C 11,1 C 59 % 1007,5 hPa 0,0 l/m 0 min 0 min 0,0 UV-I 0 W/m 0,0 km/h (0 Bft)
20.03.2014 22:50 14,2 C 11,1 C 59 % 1007,5 hPa 0,0 l/m 0 min 0 min 0,0 UV-I 0 W/m 0,0 km/h (0 Bft)
20.03.2014 22:52 14,2 C 11,1 C 60 % 1007,5 hPa 0,0 l/m 0 min 0 min 0,0 UV-I 0 W/m 2,6 km/h (1 Bft)
20.03.2014 22:54 14,3 C 11,1 C 59 % 1007,5 hPa 0,0 l/m 0 min 0 min 0,0 UV-I 0 W/m 0,0 km/h (0 Bft)
20.03.2014 22:56 14,3 C 11,1 C 59 % 1007,5 hPa 0,0 l/m 0 min 0 min 0,0 UV-I 0 W/m 0,0 km/h (0 Bft)
20.03.2014 22:58 14,4 C 11,1 C 59 % 1007,5 hPa 0,0 l/m 0 min 0 min 0,0 UV-I 0 W/m 2,6 km/h (1 Bft)
20.03.2014 23:00 14,3 C 11,1 C 59 % 1007,5 hPa 0,0 l/m 0 min 0 min 0,0 UV-I 0 W/m 0,0 km/h (0 Bft)
20.03.2014 23:02 14,3 C 11,1 C 59 % 1007,6 hPa 0,0 l/m 0 min 0 min 0,0 UV-I 0 W/m 0,0 km/h (0 Bft)
20.03.2014 23:06 14,2 C 10,6 C 60 % 1007,5 hPa 0,0 l/m 0 min 0 min 0,0 UV-I 0 W/m 0,0 km/h (0 Bft)
20.03.2014 23:08 14,2 C 10,6 C 60 % 1007,5 hPa 0,0 l/m 0 min 0 min 0,0 UV-I 0 W/m 0,0 km/h (0 Bft)
20.03.2014 23:10 14,2 C 10,6 C 61 % 1007,5 hPa 0,0 l/m 0 min 0 min 0,0 UV-I 0 W/m 0,0 km/h (0 Bft)
20.03.2014 23:12 14,2 C 10,6 C 61 % 1007,5 hPa 0,0 l/m 0 min 0 min 0,0 UV-I 0 W/m 7,7 km/h (2 Bft)
20.03.2014 23:14 14,2 C 10,6 C 61 % 1007,4 hPa 0,0 l/m 0 min 0 min 0,0 UV-I 0 W/m 7,7 km/h (2 Bft)
20.03.2014 23:16 14,2 C 11,1 C 61 % 1007,4 hPa 0,0 l/m 0 min 0 min 0,0 UV-I 0 W/m 10,3 km/h (2 Bft)
20.03.2014 23:18 14,2 C 11,7 C 60 % 1007,4 hPa 0,0 l/m 0 min 0 min 0,0 UV-I 0 W/m 7,7 km/h (2 Bft)
20.03.2014 23:20 14,2 C 11,7 C 60 % 1007,3 hPa 0,0 l/m 0 min 0 min 0,0 UV-I 0 W/m 2,6 km/h (1 Bft)
20.03.2014 23:22 14,2 C 11,7 C 60 % 1007,3 hPa 0,0 l/m 0 min 0 min 0,0 UV-I 0 W/m 12,9 km/h (3 Bft)
20.03.2014 23:24 14,3 C 11,7 C 61 % 1007,2 hPa 0,0 l/m 0 min 0 min 0,0 UV-I 0 W/m 15,4 km/h (3 Bft)
20.03.2014 23:26 14,3 C 11,7 C 61 % 1007,2 hPa 0,0 l/m 0 min 0 min 0,0 UV-I 0 W/m 0,0 km/h (0 Bft)
20.03.2014 23:28 14,3 C 11,7 C 61 % 1007,2 hPa 0,0 l/m 0 min 0 min 0,0 UV-I 0 W/m 0,0 km/h (0 Bft)
20.03.2014 23:30 14,3 C 11,7 C 61 % 1007,2 hPa 0,0 l/m 0 min 0 min 0,0 UV-I 0 W/m 5,1 km/h (1 Bft)
20.03.2014 23:32 14,3 C 11,7 C 61 % 1007,2 hPa 0,0 l/m 0 min 0 min 0,0 UV-I 0 W/m 2,6 km/h (1 Bft)
20.03.2014 23:34 14,3 C 11,7 C 61 % 1007,1 hPa 0,0 l/m 0 min 0 min 0,0 UV-I 0 W/m 7,7 km/h (2 Bft)
20.03.2014 23:36 14,4 C 11,7 C 61 % 1007,2 hPa 0,0 l/m 0 min 0 min 0,0 UV-I 0 W/m 2,6 km/h (1 Bft)
20.03.2014 23:38 14,4 C 11,7 C 61 % 1007,2 hPa 0,0 l/m 0 min 0 min 0,0 UV-I 0 W/m 12,9 km/h (3 Bft)
20.03.2014 23:40 14,5 C 11,7 C 61 % 1007,2 hPa 0,0 l/m 0 min 0 min 0,0 UV-I 0 W/m 10,3 km/h (2 Bft)
20.03.2014 23:42 14,5 C 11,7 C 61 % 1007,2 hPa 0,0 l/m 0 min 0 min 0,0 UV-I 0 W/m 2,6 km/h (1 Bft)
20.03.2014 23:44 14,6 C 12,2 C 60 % 1007,1 hPa 0,0 l/m 0 min 0 min 0,0 UV-I 0 W/m 7,7 km/h (2 Bft)
20.03.2014 23:46 14,6 C 12,2 C 60 % 1007,1 hPa 0,0 l/m 0 min 0 min 0,0 UV-I 0 W/m 15,4 km/h (3 Bft)
20.03.2014 23:48 14,7 C 12,2 C 60 % 1007,1 hPa 0,0 l/m 0 min 0 min 0,0 UV-I 0 W/m 10,3 km/h (2 Bft)
20.03.2014 23:50 14,7 C 12,2 C 60 % 1007,0 hPa 0,0 l/m 0 min 0 min 0,0 UV-I 0 W/m 12,9 km/h (3 Bft)
20.03.2014 23:52 14,7 C 12,2 C 60 % 1007,0 hPa 0,0 l/m 0 min 0 min 0,0 UV-I 0 W/m 10,3 km/h (2 Bft)
20.03.2014 23:54 14,8 C 12,2 C 60 % 1006,9 hPa 0,0 l/m 0 min 0 min 0,0 UV-I 0 W/m 12,9 km/h (3 Bft)
20.03.2014 23:56 14,8 C 12,2 C 60 % 1006,9 hPa 0,0 l/m 0 min 0 min 0,0 UV-I 0 W/m 10,3 km/h (2 Bft)
20.03.2014 23:58 14,9 C 12,2 C 60 % 1006,9 hPa 0,0 l/m 0 min 0 min 0,0 UV-I 0 W/m 18,0 km/h (3 Bft)
_ Min-Zeit 06:30 05:48 15:02 23:54 - - - - - 00:34
Minimum _ 5,1 C 3,9 C 35 % 1006,9 hPa - - - - - 0,0 km/h (0 Bft)
_ Max-Zeit 16:42 14:54 06:54 00:00 00:00 07:44 00:00 12:52 11:40 14:38
Maximum _ 22,9 C 20,6 C 91 % 1021,6 hPa 0,0 l/m 2 min 0 min 2,0 UV-I 643 W/m 51,5 km/h
S (7 Bft)
Durchschnitt _ 14,2 C 11,9 C 64 % 1014,2 hPa #0,0 l/m #9:17 h #0 min. 1,3 UV-I 354 W/m 12,8 km/h (3 Bft)
© 2014 W. Hausmann